| time (UTC) | temp F | wind direction | speed MPH | gust MPH | rain 1hr in | rain 24hr in | rain mn in | humidity % | barometer mb |
| 20260505230537 | 79 | 277 | 0.0 | 0.0 | 0.00 | 0.00 | 0.00 | 35 | 1009.8 |
| 20260505230420 | 79 | 5 | 0.0 | 0.0 | 0.00 | 0.00 | 0.00 | 33 | 1009.8 |
| 20260505230326 | 79 | 31 | 0.0 | 0.0 | 0.00 | 0.00 | 0.00 | 34 | 1009.7 |
| 20260505230233 | 79 | 79 | 0.0 | 1.0 | 0.00 | 0.00 | 0.00 | 34 | 1009.8 |
| 20260505230125 | 79 | 65 | 0.0 | 7.0 | 0.00 | 0.00 | 0.00 | 31 | 1009.8 |
| 20260505230109 | 78 | 35 | 0.0 | 7.0 | 0.00 | 0.00 | 0.00 | 31 | 1009.3 |
| 20260505230011 | 79 | 153 | 0.0 | 7.0 | 0.00 | 0.00 | 0.00 | 32 | 1009.8 |
| 20260505225921 | 79 | 44 | 0.0 | 7.0 | 0.00 | 0.00 | 0.00 | 32 | 1009.8 |
| 20260505225827 | 79 | 5 | 0.0 | 7.0 | 0.00 | 0.00 | 0.00 | 31 | 1009.8 |
| 20260505225713 | 79 | 329 | 0.0 | 7.0 | 0.00 | 0.00 | 0.00 | 31 | 1009.8 |
| 20260505225619 | 79 | 9 | 0.0 | 7.0 | 0.00 | 0.00 | 0.00 | 32 | 1009.8 |
| 20260505225532 | 79 | 338 | 0.0 | 9.0 | 0.00 | 0.00 | 0.00 | 31 | 1009.8 |
| 20260505225419 | 79 | 327 | 1.0 | 9.0 | 0.00 | 0.00 | 0.00 | 33 | 1009.9 |
| 20260505225309 | 79 | 38 | 1.0 | 11.0 | 0.00 | 0.00 | 0.00 | 34 | 1009.8 |
| 20260505225216 | 79 | 331 | 0.0 | 11.0 | 0.00 | 0.00 | 0.00 | 32 | 1010.0 |
| 20260505225119 | 79 | 56 | 0.0 | 11.0 | 0.00 | 0.00 | 0.00 | 31 | 1010.0 |
| 20260505225032 | 79 | 60 | 0.0 | 11.0 | 0.00 | 0.00 | 0.00 | 31 | 1009.8 |
| 20260505224911 | 79 | 57 | 0.0 | 11.0 | 0.00 | 0.00 | 0.00 | 31 | 1009.9 |
| 20260505224828 | 79 | 346 | 2.0 | 11.0 | 0.00 | 0.00 | 0.00 | 32 | 1009.9 |
| 20260505224734 | 79 | 288 | 3.0 | 11.0 | 0.00 | 0.00 | 0.00 | 30 | 1009.9 |
| 20260505224619 | 79 | 344 | 3.0 | 11.0 | 0.00 | 0.00 | 0.00 | 31 | 1009.9 |
| 20260505224532 | 79 | 317 | 2.0 | 11.0 | 0.00 | 0.00 | 0.00 | 30 | 1009.8 |
| 20260505224513 | 79 | 243 | 2.0 | 11.0 | 0.00 | 0.00 | 0.00 | 30 | 1009.5 |
| 20260505224418 | 79 | 258 | 0.0 | 3.0 | 0.00 | 0.00 | 0.00 | 33 | 1009.8 |
| 20260505224324 | 79 | 138 | 0.0 | 3.0 | 0.00 | 0.00 | 0.00 | 31 | 1009.8 |
| 20260505224214 | 79 | 286 | 0.0 | 8.0 | 0.00 | 0.00 | 0.00 | 31 | 1009.8 |
| 20260505224120 | 79 | 88 | 0.0 | 10.0 | 0.00 | 0.00 | 0.00 | 31 | 1009.8 |
| 20260505224033 | 79 | 36 | 0.0 | 10.0 | 0.00 | 0.00 | 0.00 | 30 | 1009.8 |
| 20260505223912 | 80 | 101 | 0.0 | 10.0 | 0.00 | 0.00 | 0.00 | 31 | 1009.8 |
| 20260505223845 | 80 | 265 | 0.0 | 10.0 | 0.00 | 0.00 | 0.00 | 30 | 1009.8 |
| 20260505223711 | 80 | 44 | 0.0 | 10.0 | 0.00 | 0.00 | 0.00 | 30 | 1009.9 |
| 20260505223621 | 80 | 5 | 0.0 | 10.0 | 0.00 | 0.00 | 0.00 | 30 | 1009.9 |
| 20260505223534 | 80 | 342 | 0.0 | 10.0 | 0.00 | 0.00 | 0.00 | 30 | 1009.8 |
| 20260505223420 | 80 | 89 | 1.0 | 10.0 | 0.00 | 0.00 | 0.00 | 30 | 1009.8 |
| 20260505223326 | 80 | 121 | 1.0 | 10.0 | 0.00 | 0.00 | 0.00 | 30 | 1009.9 |
| 20260505223212 | 80 | 327 | 1.0 | 10.0 | 0.00 | 0.00 | 0.00 | 30 | 1009.8 |
| 20260505223122 | 80 | 74 | 1.0 | 13.0 | 0.00 | 0.00 | 0.00 | 30 | 1009.8 |
| 20260505223036 | 80 | 32 | 0.0 | 13.0 | 0.00 | 0.00 | 0.00 | 31 | 1009.8 |
| 20260505223028 | 80 | 55 | 0.0 | 13.0 | 0.00 | 0.00 | 0.00 | 31 | 1009.4 |
| 20260505222913 | 81 | 52 | 0.0 | 13.0 | 0.00 | 0.00 | 0.00 | 30 | 1009.9 |
| 20260505222826 | 81 | 78 | 0.0 | 13.0 | 0.00 | 0.00 | 0.00 | 30 | 1009.9 |
| 20260505222714 | 81 | 42 | 0.0 | 13.0 | 0.00 | 0.00 | 0.00 | 29 | 1009.8 |
| 20260505222619 | 81 | 32 | 1.0 | 13.0 | 0.00 | 0.00 | 0.00 | 29 | 1009.8 |
| 20260505222556 | 81 | 89 | 1.0 | 13.0 | 0.00 | 0.00 | 0.00 | 29 | 1009.9 |
| 20260505222421 | 81 | 23 | 2.0 | 13.0 | 0.00 | 0.00 | 0.00 | 30 | 1009.9 |
| 20260505222327 | 81 | 227 | 2.0 | 13.0 | 0.00 | 0.00 | 0.00 | 31 | 1009.9 |
| 20260505222211 | 81 | 58 | 0.0 | 3.0 | 0.00 | 0.00 | 0.00 | 29 | 1009.9 |
| 20260505222117 | 81 | 23 | 0.0 | 3.0 | 0.00 | 0.00 | 0.00 | 29 | 1010.0 |
| 20260505222023 | 81 | 323 | 0.0 | 3.0 | 0.00 | 0.00 | 0.00 | 33 | 1010.0 |
| 20260505221913 | 81 | 288 | 0.0 | 3.0 | 0.00 | 0.00 | 0.00 | 30 | 1010.0 |
| 20260505221827 | 81 | 325 | 0.0 | 3.0 | 0.00 | 0.00 | 0.00 | 31 | 1010.0 |
| 20260505221732 | 81 | 105 | 0.0 | 3.0 | 0.00 | 0.00 | 0.00 | 31 | 1010.0 |
| 20260505221617 | 81 | 213 | 0.0 | 3.0 | 0.00 | 0.00 | 0.00 | 31 | 1010.0 |
| 20260505221530 | 81 | 121 | 0.0 | 3.0 | 0.00 | 0.00 | 0.00 | 32 | 1010.0 |
| 20260505221520 | 81 | 211 | 0.0 | 3.0 | 0.00 | 0.00 | 0.00 | 32 | 1009.6 |
| 20260505221421 | 81 | 143 | 0.0 | 3.0 | 0.00 | 0.00 | 0.00 | 31 | 1010.0 |
| 20260505221326 | 81 | 58 | 0.0 | 3.0 | 0.00 | 0.00 | 0.00 | 30 | 1010.0 |
| 20260505221212 | 81 | 105 | 0.0 | 0.0 | 0.00 | 0.00 | 0.00 | 31 | 1010.1 |
| 20260505221138 | 81 | 321 | 0.0 | 0.0 | 0.00 | 0.00 | 0.00 | 31 | 1010.1 |
| 20260505221030 | 81 | 317 | 0.0 | 0.0 | 0.00 | 0.00 | 0.00 | 31 | 1010.0 |
| 20260505220915 | 81 | 15 | 0.0 | 0.0 | 0.00 | 0.00 | 0.00 | 31 | 1010.0 |
| 20260505220821 | 81 | 125 | 0.0 | 0.0 | 0.00 | 0.00 | 0.00 | 30 | 1010.0 |
| 20260505220711 | 81 | 203 | 0.0 | 0.0 | 0.00 | 0.00 | 0.00 | 31 | 1010.0 |
| 20260505220624 | 81 | 13 | 0.0 | 0.0 | 0.00 | 0.00 | 0.00 | 31 | 1010.0 |
| 20260505220531 | 81 | 32 | 0.0 | 1.0 | 0.00 | 0.00 | 0.00 | 30 | 1009.9 |
| 20260505220416 | 81 | 302 | 0.0 | 1.0 | 0.00 | 0.00 | 0.00 | 31 | 1010.0 |
| 20260505220349 | 81 | 73 | 0.0 | 6.0 | 0.00 | 0.00 | 0.00 | 33 | 1010.0 |
| 20260505220214 | 81 | 36 | 0.0 | 6.0 | 0.00 | 0.00 | 0.00 | 30 | 1009.8 |
| 20260505220121 | 81 | 50 | 0.0 | 6.0 | 0.00 | 0.00 | 0.00 | 30 | 1009.8 |
| 20260505220054 | 81 | 44 | 0.0 | 6.0 | 0.00 | 0.00 | 0.00 | 31 | 1009.8 |
| 20260505220011 | 81 | 47 | 0.0 | 6.0 | 0.00 | 0.00 | 0.00 | 31 | 1009.5 |
| 20260505215940 | 81 | 315 | 0.0 | 6.0 | 0.00 | 0.00 | 0.00 | 29 | 1009.9 |
| 20260505215824 | 81 | 298 | 0.0 | 6.0 | 0.00 | 0.00 | 0.00 | 31 | 1009.9 |
| 20260505215737 | 81 | 55 | 0.0 | 6.0 | 0.00 | 0.00 | 0.00 | 31 | 1009.9 |
| 20260505215619 | 81 | 40 | 1.0 | 6.0 | 0.00 | 0.00 | 0.00 | 30 | 1009.8 |
| 20260505215509 | 81 | 300 | 2.0 | 6.0 | 0.00 | 0.00 | 0.00 | 31 | 1009.8 |
| 20260505215416 | 81 | 55 | 1.0 | 7.0 | 0.00 | 0.00 | 0.00 | 30 | 1009.9 |
| 20260505215322 | 81 | 48 | 0.0 | 9.0 | 0.00 | 0.00 | 0.00 | 31 | 1009.9 |
| 20260505215228 | 81 | 334 | 0.0 | 9.0 | 0.00 | 0.00 | 0.00 | 29 | 1009.9 |
| 20260505215114 | 81 | 360 | 0.0 | 9.0 | 0.00 | 0.00 | 0.00 | 30 | 1009.8 |
| 20260505215027 | 81 | 36 | 0.0 | 9.0 | 0.00 | 0.00 | 0.00 | 29 | 1009.8 |
| 20260505214917 | 82 | 340 | 0.0 | 9.0 | 0.00 | 0.00 | 0.00 | 29 | 1009.8 |
| 20260505214823 | 82 | 17 | 0.0 | 9.0 | 0.00 | 0.00 | 0.00 | 29 | 1009.8 |
| 20260505214709 | 82 | 266 | 0.0 | 9.0 | 0.00 | 0.00 | 0.00 | 29 | 1009.7 |
| 20260505214640 | 81 | 267 | 0.0 | 9.0 | 0.00 | 0.00 | 0.00 | 29 | 1009.3 |
| 20260505214615 | 82 | 73 | 1.0 | 9.0 | 0.00 | 0.00 | 0.00 | 29 | 1009.8 |
| 20260505214548 | 82 | 323 | 1.0 | 9.0 | 0.00 | 0.00 | 0.00 | 28 | 1009.8 |
| 20260505214501 | 82 | 355 | 1.0 | 9.0 | 0.00 | 0.00 | 0.00 | 30 | 1009.8 |
| 20260505214319 | 82 | 24 | 0.0 | 8.0 | 0.00 | 0.00 | 0.00 | 28 | 1009.7 |
| 20260505214225 | 82 | 9 | 1.0 | 8.0 | 0.00 | 0.00 | 0.00 | 28 | 1009.7 |
| 20260505214111 | 82 | 51 | 1.0 | 9.0 | 0.00 | 0.00 | 0.00 | 28 | 1009.6 |
| 20260505214016 | 82 | 53 | 1.0 | 9.0 | 0.00 | 0.00 | 0.00 | 27 | 1009.7 |
| 20260505213922 | 82 | 181 | 0.0 | 9.0 | 0.00 | 0.00 | 0.00 | 28 | 1009.7 |
| 20260505213813 | 82 | 75 | 1.0 | 9.0 | 0.00 | 0.00 | 0.00 | 28 | 1009.6 |
| 20260505213726 | 82 | 340 | 1.0 | 9.0 | 0.00 | 0.00 | 0.00 | 28 | 1009.6 |
| 20260505213611 | 82 | 277 | 0.0 | 9.0 | 0.00 | 0.00 | 0.00 | 29 | 1009.6 |
| 20260505213518 | 82 | 355 | 0.0 | 9.0 | 0.00 | 0.00 | 0.00 | 28 | 1009.5 |
| 20260505213444 | 82 | 58 | 1.0 | 9.0 | 0.00 | 0.00 | 0.00 | 27 | 1009.5 |
| 20260505213335 | 82 | 58 | 1.0 | 9.0 | 0.00 | 0.00 | 0.00 | 27 | 1009.6 |
| 20260505213220 | 82 | 130 | 1.0 | 8.0 | 0.00 | 0.00 | 0.00 | 27 | 1009.6 |
| 20260505213131 | 82 | 35 | 0.0 | 8.0 | 0.00 | 0.00 | 0.00 | 27 | 1009.6 |
| 20260505213022 | 82 | 55 | 0.0 | 8.0 | 0.00 | 0.00 | 0.00 | 27 | 1009.6 |
| 20260505213008 | 82 | 26 | 0.0 | 8.0 | 0.00 | 0.00 | 0.00 | 27 | 1009.1 |
| 20260505212928 | 82 | 331 | 0.0 | 8.0 | 0.00 | 0.00 | 0.00 | 28 | 1009.5 |
| 20260505212814 | 82 | 213 | 0.0 | 9.0 | 0.00 | 0.00 | 0.00 | 28 | 1009.6 |
| 20260505212747 | 82 | 332 | 1.0 | 9.0 | 0.00 | 0.00 | 0.00 | 27 | 1009.6 |
| 20260505212612 | 82 | 21 | 1.0 | 9.0 | 0.00 | 0.00 | 0.00 | 27 | 1009.5 |
| 20260505212522 | 82 | 355 | 1.0 | 9.0 | 0.00 | 0.00 | 0.00 | 27 | 1009.5 |
| 20260505212428 | 82 | 349 | 1.0 | 12.0 | 0.00 | 0.00 | 0.00 | 26 | 1009.4 |
| 20260505212314 | 82 | 36 | 0.0 | 12.0 | 0.00 | 0.00 | 0.00 | 27 | 1009.6 |
| 20260505212220 | 82 | 60 | 0.0 | 12.0 | 0.00 | 0.00 | 0.00 | 25 | 1009.6 |
| 20260505212133 | 82 | 30 | 1.0 | 12.0 | 0.00 | 0.00 | 0.00 | 26 | 1009.6 |
| 20260505212023 | 82 | 65 | 3.0 | 12.0 | 0.00 | 0.00 | 0.00 | 26 | 1009.6 |
| 20260505211909 | 82 | 23 | 1.0 | 12.0 | 0.00 | 0.00 | 0.00 | 25 | 1009.7 |
| 20260505211815 | 83 | 355 | 1.0 | 12.0 | 0.00 | 0.00 | 0.00 | 25 | 1009.5 |
| 20260505211721 | 83 | 49 | 2.0 | 12.0 | 0.00 | 0.00 | 0.00 | 25 | 1009.5 |
| 20260505211635 | 83 | 44 | 2.0 | 12.0 | 0.00 | 0.00 | 0.00 | 26 | 1009.4 |
| 20260505211627 | 82 | 57 | 1.0 | 12.0 | 0.00 | 0.00 | 0.00 | 26 | 1009.0 |
| 20260505211540 | 83 | 14 | 2.0 | 9.0 | 0.00 | 0.00 | 0.00 | 25 | 1009.5 |
| 20260505211409 | 83 | 40 | 2.0 | 9.0 | 0.00 | 0.00 | 0.00 | 26 | 1009.4 |
| 20260505211315 | 83 | 65 | 0.0 | 10.0 | 0.00 | 0.00 | 0.00 | 26 | 1009.4 |
| 20260505211248 | 83 | 101 | 0.0 | 10.0 | 0.00 | 0.00 | 0.00 | 28 | 1009.4 |
| 20260505211113 | 83 | 69 | 0.0 | 15.0 | 0.00 | 0.00 | 0.00 | 27 | 1009.4 |
| 20260505211018 | 83 | 319 | 1.0 | 15.0 | 0.00 | 0.00 | 0.00 | 26 | 1009.4 |
| 20260505210924 | 84 | 257 | 1.0 | 15.0 | 0.00 | 0.00 | 0.00 | 26 | 1009.4 |
| 20260505210814 | 84 | 48 | 0.0 | 15.0 | 0.00 | 0.00 | 0.00 | 27 | 1009.4 |
| 20260505210747 | 84 | 96 | 0.0 | 15.0 | 0.00 | 0.00 | 0.00 | 26 | 1009.4 |
| 20260505210632 | 84 | 48 | 1.0 | 15.0 | 0.00 | 0.00 | 0.00 | 27 | 1009.5 |
| 20260505210525 | 84 | 288 | 1.0 | 15.0 | 0.00 | 0.00 | 0.00 | 28 | 1009.5 |
| 20260505210430 | 84 | 47 | 2.0 | 15.0 | 0.00 | 0.00 | 0.00 | 27 | 1009.4 |
| 20260505210315 | 84 | 326 | 1.0 | 15.0 | 0.00 | 0.00 | 0.00 | 28 | 1009.4 |
| 20260505210221 | 84 | 46 | 1.0 | 15.0 | 0.00 | 0.00 | 0.00 | 27 | 1009.4 |
| 20260505210111 | 84 | 321 | 2.0 | 9.0 | 0.00 | 0.00 | 0.00 | 27 | 1009.5 |
| 20260505210024 | 83 | 49 | 2.0 | 9.0 | 0.00 | 0.00 | 0.00 | 27 | 1009.5 |
| 20260505210008 | 83 | 20 | 1.0 | 9.0 | 0.00 | 0.00 | 0.00 | 27 | 1008.9 |
| 20260505205910 | 83 | 30 | 0.0 | 9.0 | 0.00 | 0.00 | 0.00 | 31 | 1009.5 |
| 20260505205815 | 83 | 11 | 0.0 | 9.0 | 0.00 | 0.00 | 0.00 | 27 | 1009.5 |
| 20260505205721 | 83 | 82 | 1.0 | 9.0 | 0.00 | 0.00 | 0.00 | 27 | 1009.5 |
| 20260505205612 | 83 | 306 | 2.0 | 9.0 | 0.00 | 0.00 | 0.00 | 29 | 1009.5 |
| 20260505205518 | 83 | 355 | 1.0 | 9.0 | 0.00 | 0.00 | 0.00 | 27 | 1009.6 |
| 20260505205431 | 83 | 269 | 2.0 | 9.0 | 0.00 | 0.00 | 0.00 | 28 | 1009.6 |
| 20260505205317 | 83 | 28 | 1.0 | 9.0 | 0.00 | 0.00 | 0.00 | 28 | 1009.5 |
| 20260505205222 | 83 | 321 | 0.0 | 5.0 | 0.00 | 0.00 | 0.00 | 28 | 1009.5 |
| 20260505205156 | 83 | 329 | 0.0 | 5.0 | 0.00 | 0.00 | 0.00 | 28 | 1009.4 |
| 20260505205024 | 83 | 319 | 0.0 | 6.0 | 0.00 | 0.00 | 0.00 | 28 | 1009.5 |
| 20260505204910 | 83 | 90 | 0.0 | 10.0 | 0.00 | 0.00 | 0.00 | 29 | 1009.4 |
| 20260505204816 | 83 | 17 | 0.0 | 10.0 | 0.00 | 0.00 | 0.00 | 31 | 1009.5 |
| 20260505204722 | 83 | 21 | 0.0 | 10.0 | 0.00 | 0.00 | 0.00 | 30 | 1009.5 |
| 20260505204628 | 83 | 22 | 0.0 | 10.0 | 0.00 | 0.00 | 0.00 | 30 | 1009.6 |
| 20260505204541 | 82 | 5 | 0.0 | 10.0 | 0.00 | 0.00 | 0.00 | 31 | 1009.6 |
| 20260505204501 | 82 | 35 | 0.0 | 10.0 | 0.00 | 0.00 | 0.00 | 32 | 1009.1 |
| 20260505204411 | 82 | 11 | 0.0 | 10.0 | 0.00 | 0.00 | 0.00 | 29 | 1009.5 |
| 20260505204316 | 82 | 17 | 2.0 | 10.0 | 0.00 | 0.00 | 0.00 | 29 | 1009.5 |
| 20260505204222 | 82 | 58 | 3.0 | 10.0 | 0.00 | 0.00 | 0.00 | 29 | 1009.5 |
| 20260505204135 | 82 | 74 | 2.0 | 13.0 | 0.00 | 0.00 | 0.00 | 29 | 1009.5 |
| 20260505204021 | 82 | 5 | 1.0 | 13.0 | 0.00 | 0.00 | 0.00 | 29 | 1009.4 |
| 20260505203912 | 82 | 300 | 1.0 | 13.0 | 0.00 | 0.00 | 0.00 | 28 | 1009.4 |
| 20260505203817 | 82 | 317 | 1.0 | 13.0 | 0.00 | 0.00 | 0.00 | 29 | 1009.5 |
| 20260505203723 | 82 | 55 | 1.0 | 13.0 | 0.00 | 0.00 | 0.00 | 29 | 1009.5 |
| 20260505203626 | 82 | 95 | 1.0 | 13.0 | 0.00 | 0.00 | 0.00 | 28 | 1009.5 |
| 20260505203512 | 83 | 265 | 2.0 | 16.0 | 0.00 | 0.00 | 0.00 | 28 | 1009.5 |
| 20260505203425 | 83 | 319 | 2.0 | 16.0 | 0.00 | 0.00 | 0.00 | 28 | 1009.5 |
| 20260505203335 | 83 | 10 | 3.0 | 16.0 | 0.00 | 0.00 | 0.00 | 28 | 1009.5 |
| 20260505203221 | 83 | 71 | 2.0 | 16.0 | 0.00 | 0.00 | 0.00 | 28 | 1009.5 |
| 20260505203134 | 83 | 30 | 1.0 | 16.0 | 0.00 | 0.00 | 0.00 | 29 | 1009.6 |
| 20260505203025 | 82 | 40 | 0.0 | 16.0 | 0.00 | 0.00 | 0.00 | 30 | 1009.1 |
| 20260505203021 | 83 | 38 | 0.0 | 16.0 | 0.00 | 0.00 | 0.00 | 30 | 1009.5 |
| 20260505202926 | 83 | 36 | 0.0 | 16.0 | 0.00 | 0.00 | 0.00 | 28 | 1009.5 |
| 20260505202816 | 83 | 288 | 2.0 | 16.0 | 0.00 | 0.00 | 0.00 | 28 | 1009.6 |
| 20260505202743 | 83 | 291 | 2.0 | 16.0 | 0.00 | 0.00 | 0.00 | 28 | 1009.6 |
| 20260505202633 | 83 | 238 | 1.0 | 16.0 | 0.00 | 0.00 | 0.00 | 28 | 1009.6 |
| 20260505202519 | 83 | 69 | 0.0 | 5.0 | 0.00 | 0.00 | 0.00 | 30 | 1009.6 |
| 20260505202425 | 83 | 57 | 0.0 | 5.0 | 0.00 | 0.00 | 0.00 | 29 | 1009.5 |
| 20260505202311 | 83 | 24 | 0.0 | 5.0 | 0.00 | 0.00 | 0.00 | 29 | 1009.5 |
| 20260505202220 | 83 | 343 | 0.0 | 12.0 | 0.00 | 0.00 | 0.00 | 30 | 1009.5 |
| 20260505202133 | 83 | 17 | 0.0 | 12.0 | 0.00 | 0.00 | 0.00 | 29 | 1009.5 |
| 20260505202039 | 83 | 13 | 0.0 | 12.0 | 0.00 | 0.00 | 0.00 | 30 | 1009.6 |
| 20260505202007 | 83 | 24 | 0.0 | 12.0 | 0.00 | 0.00 | 0.00 | 29 | 1009.5 |
| 20260505201813 | 83 | 9 | 0.0 | 12.0 | 0.00 | 0.00 | 0.00 | 28 | 1009.6 |
| 20260505201726 | 83 | 153 | 1.0 | 12.0 | 0.00 | 0.00 | 0.00 | 29 | 1009.6 |
| 20260505201616 | 83 | 98 | 1.0 | 12.0 | 0.00 | 0.00 | 0.00 | 28 | 1009.6 |
| 20260505201558 | 83 | 67 | 2.0 | 12.0 | 0.00 | 0.00 | 0.00 | 28 | 1009.1 |
| 20260505201522 | 83 | 18 | 2.0 | 12.0 | 0.00 | 0.00 | 0.00 | 28 | 1009.6 |
| 20260505201428 | 84 | 44 | 2.0 | 12.0 | 0.00 | 0.00 | 0.00 | 28 | 1009.5 |
| 20260505201341 | 84 | 44 | 1.0 | 6.0 | 0.00 | 0.00 | 0.00 | 29 | 1009.5 |
| 20260505201226 | 84 | 303 | 0.0 | 5.0 | 0.00 | 0.00 | 0.00 | 29 | 1009.6 |
| 20260505201112 | 84 | 317 | 0.0 | 5.0 | 0.00 | 0.00 | 0.00 | 30 | 1009.5 |
| 20260505201038 | 84 | 18 | 0.0 | 5.0 | 0.00 | 0.00 | 0.00 | 29 | 1009.5 |
| 20260505200934 | 84 | 360 | 0.0 | 9.0 | 0.00 | 0.00 | 0.00 | 28 | 1009.6 |
| 20260505200839 | 84 | 28 | 0.0 | 9.0 | 0.00 | 0.00 | 0.00 | 27 | 1009.6 |
| 20260505200731 | 84 | 278 | 0.0 | 10.0 | 0.00 | 0.00 | 0.00 | 27 | 1009.6 |
| 20260505200615 | 84 | 355 | 0.0 | 10.0 | 0.00 | 0.00 | 0.00 | 27 | 1009.7 |
| 20260505200522 | 84 | 229 | 0.0 | 10.0 | 0.00 | 0.00 | 0.00 | 27 | 1009.7 |
| 20260505200455 | 84 | 326 | 0.0 | 10.0 | 0.00 | 0.00 | 0.00 | 29 | 1009.7 |
| 20260505200324 | 84 | 306 | 0.0 | 10.0 | 0.00 | 0.00 | 0.00 | 29 | 1009.7 |
| 20260505200231 | 84 | 36 | 1.0 | 10.0 | 0.00 | 0.00 | 0.00 | 28 | 1009.8 |
| 20260505200143 | 84 | 38 | 1.0 | 10.0 | 0.00 | 0.00 | 0.00 | 28 | 1009.8 |
| 20260505200109 | 84 | 326 | 1.0 | 10.0 | 0.00 | 0.00 | 0.00 | 28 | 1009.3 |
| 20260505200048 | 84 | 14 | 2.0 | 10.0 | 0.00 | 0.00 | 0.00 | 28 | 1009.7 |
| 20260505195912 | 84 | 272 | 1.0 | 10.0 | 0.00 | 0.00 | 0.00 | 28 | 1009.8 |
| 20260505195818 | 84 | 298 | 0.0 | 10.0 | 0.00 | 0.00 | 0.00 | 30 | 1009.8 |
| 20260505195731 | 84 | 9 | 0.0 | 10.0 | 0.00 | 0.00 | 0.00 | 29 | 1009.8 |
| 20260505195619 | 84 | 30 | 0.0 | 11.0 | 0.00 | 0.00 | 0.00 | 29 | 1009.7 |
| 20260505195524 | 84 | 79 | 0.0 | 11.0 | 0.00 | 0.00 | 0.00 | 28 | 1009.7 |
| 20260505195410 | 84 | 319 | 0.0 | 11.0 | 0.00 | 0.00 | 0.00 | 28 | 1009.7 |
| 20260505195316 | 84 | 310 | 1.0 | 11.0 | 0.00 | 0.00 | 0.00 | 27 | 1009.7 |
| 20260505195229 | 83 | 91 | 2.0 | 11.0 | 0.00 | 0.00 | 0.00 | 27 | 1009.7 |
| 20260505195119 | 83 | 44 | 1.0 | 11.0 | 0.00 | 0.00 | 0.00 | 27 | 1009.7 |
| 20260505195025 | 83 | 115 | 1.0 | 11.0 | 0.00 | 0.00 | 0.00 | 27 | 1009.7 |
| 20260505194912 | 83 | 102 | 1.0 | 11.0 | 0.00 | 0.00 | 0.00 | 27 | 1009.7 |
| 20260505194838 | 83 | 19 | 2.0 | 11.0 | 0.00 | 0.00 | 0.00 | 28 | 1009.8 |
| 20260505194750 | 83 | 92 | 2.0 | 12.0 | 0.00 | 0.00 | 0.00 | 26 | 1009.8 |
| 20260505194614 | 84 | 32 | 1.0 | 12.0 | 0.00 | 0.00 | 0.00 | 26 | 1009.8 |
| 20260505194538 | 83 | 225 | 1.0 | 12.0 | 0.00 | 0.00 | 0.00 | 26 | 1009.3 |
| 20260505194519 | 84 | 61 | 1.0 | 12.0 | 0.00 | 0.00 | 0.00 | 26 | 1009.7 |
| 20260505194409 | 84 | 55 | 1.0 | 12.0 | 0.00 | 0.00 | 0.00 | 27 | 1009.8 |
| 20260505194322 | 84 | 95 | 1.0 | 12.0 | 0.00 | 0.00 | 0.00 | 26 | 1009.8 |
| 20260505194248 | 84 | 103 | 2.0 | 12.0 | 0.00 | 0.00 | 0.00 | 26 | 1009.9 |
| 20260505194111 | 84 | 318 | 1.0 | 12.0 | 0.00 | 0.00 | 0.00 | 27 | 1009.8 |
| 20260505194044 | 84 | 24 | 2.0 | 12.0 | 0.00 | 0.00 | 0.00 | 27 | 1009.8 |
| 20260505193949 | 84 | 305 | 2.0 | 12.0 | 0.00 | 0.00 | 0.00 | 26 | 1009.8 |
| 20260505193826 | 84 | 44 | 0.0 | 9.0 | 0.00 | 0.00 | 0.00 | 28 | 1009.9 |
| 20260505193731 | 84 | 60 | 0.0 | 9.0 | 0.00 | 0.00 | 0.00 | 27 | 1009.8 |
| 20260505193617 | 84 | 9 | 0.0 | 13.0 | 0.00 | 0.00 | 0.00 | 26 | 1009.8 |
| 20260505193513 | 84 | 42 | 0.0 | 13.0 | 0.00 | 0.00 | 0.00 | 26 | 1009.9 |
| 20260505193416 | 84 | 323 | 1.0 | 14.0 | 0.00 | 0.00 | 0.00 | 28 | 1009.8 |
| 20260505193329 | 84 | 64 | 1.0 | 14.0 | 0.00 | 0.00 | 0.00 | 26 | 1009.8 |
| 20260505193219 | 84 | 24 | 0.0 | 14.0 | 0.00 | 0.00 | 0.00 | 27 | 1009.9 |
| 20260505193118 | 84 | 346 | 0.0 | 14.0 | 0.00 | 0.00 | 0.00 | 27 | 1009.9 |
| 20260505193049 | 83 | 74 | 0.0 | 14.0 | 0.00 | 0.00 | 0.00 | 27 | 1009.4 |
| 20260505193020 | 84 | 298 | 1.0 | 14.0 | 0.00 | 0.00 | 0.00 | 27 | 1009.9 |
| 20260505192919 | 84 | 42 | 3.0 | 14.0 | 0.00 | 0.00 | 0.00 | 28 | 1009.9 |
| 20260505192832 | 84 | 40 | 3.0 | 14.0 | 0.00 | 0.00 | 0.00 | 27 | 1009.8 |
| 20260505192609 | 84 | 30 | 5.0 | 14.0 | 0.00 | 0.00 | 0.00 | 27 | 1009.8 |
| 20260505192522 | 84 | 150 | 2.0 | 10.0 | 0.00 | 0.00 | 0.00 | 27 | 1009.8 |
| 20260505192448 | 84 | 287 | 1.0 | 9.0 | 0.00 | 0.00 | 0.00 | 28 | 1009.9 |
| 20260505192212 | 84 | 95 | 1.0 | 12.0 | 0.00 | 0.00 | 0.00 | 30 | 1010.0 |
| 20260505192138 | 84 | 290 | 0.0 | 15.0 | 0.00 | 0.00 | 0.00 | 29 | 1010.0 |
| 20260505192030 | 84 | 301 | 1.0 | 15.0 | 0.00 | 0.00 | 0.00 | 28 | 1010.0 |
| 20260505191940 | 84 | 17 | 1.0 | 15.0 | 0.00 | 0.00 | 0.00 | 28 | 1010.0 |
| 20260505191852 | 84 | 13 | 1.0 | 15.0 | 0.00 | 0.00 | 0.00 | 29 | 1010.0 |
| 20260505191709 | 84 | 336 | 2.0 | 15.0 | 0.00 | 0.00 | 0.00 | 28 | 1010.0 |
| 20260505191623 | 84 | 71 | 2.0 | 15.0 | 0.00 | 0.00 | 0.00 | 29 | 1010.0 |
| 20260505191609 | 83 | 28 | 1.0 | 15.0 | 0.00 | 0.00 | 0.00 | 29 | 1009.7 |
| 20260505191529 | 84 | 95 | 2.0 | 15.0 | 0.00 | 0.00 | 0.00 | 28 | 1010.1 |
| 20260505191414 | 84 | 10 | 2.0 | 15.0 | 0.00 | 0.00 | 0.00 | 27 | 1010.0 |
| 20260505191324 | 84 | 36 | 4.0 | 15.0 | 0.00 | 0.00 | 0.00 | 27 | 1010.0 |
| 20260505191210 | 84 | 12 | 4.0 | 15.0 | 0.00 | 0.00 | 0.00 | 28 | 1010.0 |
| 20260505191123 | 84 | 15 | 2.0 | 13.0 | 0.00 | 0.00 | 0.00 | 28 | 1010.0 |
| 20260505191010 | 84 | 54 | 1.0 | 13.0 | 0.00 | 0.00 | 0.00 | 29 | 1010.1 |
| 20260505190935 | 84 | 321 | 1.0 | 18.0 | 0.00 | 0.00 | 0.00 | 28 | 1010.2 |
| 20260505190820 | 84 | 109 | 1.0 | 18.0 | 0.00 | 0.00 | 0.00 | 28 | 1010.2 |
| 20260505190711 | 84 | 42 | 0.0 | 18.0 | 0.00 | 0.00 | 0.00 | 31 | 1010.0 |
| 20260505190623 | 83 | 58 | 0.0 | 19.0 | 0.00 | 0.00 | 0.00 | 29 | 1010.0 |
| 20260505190510 | 83 | 196 | 3.0 | 19.0 | 0.00 | 0.00 | 0.00 | 28 | 1010.0 |
| 20260505190416 | 83 | 148 | 5.0 | 19.0 | 0.00 | 0.00 | 0.00 | 28 | 1010.2 |
| 20260505190321 | 83 | 39 | 4.0 | 19.0 | 0.00 | 0.00 | 0.00 | 29 | 1010.2 |
| 20260505190211 | 84 | 78 | 4.0 | 19.0 | 0.00 | 0.00 | 0.00 | 29 | 1010.1 |
| 20260505190124 | 84 | 71 | 3.0 | 19.0 | 0.00 | 0.00 | 0.00 | 29 | 1010.1 |
| 20260505190115 | 83 | 52 | 2.0 | 19.0 | 0.00 | 0.00 | 0.00 | 29 | 1009.6 |
| 20260505190031 | 84 | 51 | 2.0 | 19.0 | 0.00 | 0.00 | 0.00 | 29 | 1010.1 |
| 20260505185943 | 84 | 49 | 4.0 | 19.0 | 0.00 | 0.00 | 0.00 | 29 | 1010.1 |
| 20260505185827 | 84 | 67 | 5.0 | 19.0 | 0.00 | 0.00 | 0.00 | 30 | 1010.1 |
| 20260505185713 | 84 | 9 | 4.0 | 15.0 | 0.00 | 0.00 | 0.00 | 30 | 1010.1 |
| 20260505185619 | 83 | 15 | 2.0 | 15.0 | 0.00 | 0.00 | 0.00 | 30 | 1010.1 |
| 20260505185509 | 83 | 46 | 1.0 | 15.0 | 0.00 | 0.00 | 0.00 | 30 | 1010.2 |
| 20260505185442 | 83 | 42 | 3.0 | 15.0 | 0.00 | 0.00 | 0.00 | 30 | 1010.2 |
| 20260505185347 | 83 | 46 | 3.0 | 15.0 | 0.00 | 0.00 | 0.00 | 31 | 1010.2 |
| 20260505185212 | 84 | 62 | 2.0 | 13.0 | 0.00 | 0.00 | 0.00 | 30 | 1010.2 |
| 20260505185125 | 84 | 53 | 2.0 | 13.0 | 0.00 | 0.00 | 0.00 | 30 | 1010.2 |
| 20260505185031 | 84 | 329 | 1.0 | 13.0 | 0.00 | 0.00 | 0.00 | 32 | 1010.3 |
| 20260505184942 | 83 | 50 | 0.0 | 16.0 | 0.00 | 0.00 | 0.00 | 31 | 1010.3 |
| 20260505184835 | 83 | 24 | 0.0 | 16.0 | 0.00 | 0.00 | 0.00 | 32 | 1010.3 |
| 20260505184713 | 83 | 302 | 0.0 | 16.0 | 0.00 | 0.00 | 0.00 | 31 | 1010.3 |
| 20260505184646 | 83 | 47 | 0.0 | 16.0 | 0.00 | 0.00 | 0.00 | 31 | 1010.3 |
| 20260505184547 | 83 | 54 | 0.0 | 16.0 | 0.00 | 0.00 | 0.00 | 31 | 1009.9 |
| 20260505184511 | 83 | 234 | 2.0 | 16.0 | 0.00 | 0.00 | 0.00 | 30 | 1010.3 |
| 20260505184417 | 83 | 147 | 3.0 | 16.0 | 0.00 | 0.00 | 0.00 | 31 | 1010.2 |
| 20260505184334 | 83 | 40 | 2.0 | 16.0 | 0.00 | 0.00 | 0.00 | 32 | 1010.2 |
| 20260505184220 | 83 | 69 | 3.0 | 16.0 | 0.00 | 0.00 | 0.00 | 32 | 1010.3 |
| 20260505184126 | 83 | 130 | 6.0 | 16.0 | 0.00 | 0.00 | 0.00 | 31 | 1010.4 |
| 20260505184012 | 83 | 88 | 7.0 | 15.0 | 0.00 | 0.00 | 0.00 | 31 | 1010.4 |
| 20260505183918 | 83 | 33 | 7.0 | 15.0 | 0.00 | 0.00 | 0.00 | 31 | 1010.3 |
| 20260505183824 | 83 | 17 | 6.0 | 15.0 | 0.00 | 0.00 | 0.00 | 31 | 1010.3 |
| 20260505183741 | 83 | 49 | 4.0 | 15.0 | 0.00 | 0.00 | 0.00 | 30 | 1010.3 |
| 20260505183626 | 83 | 53 | 3.0 | 11.0 | 0.00 | 0.00 | 0.00 | 30 | 1010.4 |
| 20260505183511 | 83 | 315 | 4.0 | 16.0 | 0.00 | 0.00 | 0.00 | 30 | 1010.3 |
| 20260505183418 | 83 | 43 | 2.0 | 16.0 | 0.00 | 0.00 | 0.00 | 30 | 1010.5 |
| 20260505183331 | 83 | 49 | 0.0 | 16.0 | 0.00 | 0.00 | 0.00 | 31 | 1010.5 |
| 20260505183221 | 83 | 306 | 1.0 | 16.0 | 0.00 | 0.00 | 0.00 | 32 | 1010.5 |
| 20260505183141 | 83 | 267 | 1.0 | 16.0 | 0.00 | 0.00 | 0.00 | 31 | 1010.2 |
| 20260505183127 | 83 | 323 | 2.0 | 16.0 | 0.00 | 0.00 | 0.00 | 31 | 1010.5 |
| 20260505183012 | 84 | 311 | 1.0 | 16.0 | 0.00 | 0.00 | 0.00 | 31 | 1010.6 |
| 20260505182919 | 84 | 326 | 3.0 | 16.0 | 0.00 | 0.00 | 0.00 | 32 | 1010.6 |
| 20260505182852 | 84 | 241 | 4.0 | 16.0 | 0.00 | 0.00 | 0.00 | 31 | 1010.7 |
| 20260505182736 | 84 | 63 | 2.0 | 16.0 | 0.00 | 0.00 | 0.00 | 32 | 1010.6 |
| 20260505182621 | 84 | 292 | 1.0 | 9.0 | 0.00 | 0.00 | 0.00 | 32 | 1010.6 |
| 20260505182511 | 84 | 65 | 1.0 | 9.0 | 0.00 | 0.00 | 0.00 | 32 | 1010.6 |
| 20260505182424 | 84 | 66 | 0.0 | 9.0 | 0.00 | 0.00 | 0.00 | 31 | 1010.6 |
| 20260505182310 | 84 | 235 | 1.0 | 10.0 | 0.00 | 0.00 | 0.00 | 32 | 1010.7 |
| 20260505182216 | 84 | 45 | 1.0 | 12.0 | 0.00 | 0.00 | 0.00 | 33 | 1010.8 |
| 20260505182123 | 84 | 51 | 2.0 | 12.0 | 0.00 | 0.00 | 0.00 | 33 | 1010.8 |
| 20260505182032 | 84 | 234 | 2.0 | 12.0 | 0.00 | 0.00 | 0.00 | 33 | 1010.6 |
| 20260505181924 | 84 | 22 | 1.0 | 12.0 | 0.00 | 0.00 | 0.00 | 32 | 1010.6 |
| 20260505181810 | 84 | 37 | 1.0 | 12.0 | 0.00 | 0.00 | 0.00 | 33 | 1010.6 |
| 20260505181717 | 84 | 230 | 0.0 | 12.0 | 0.00 | 0.00 | 0.00 | 33 | 1010.5 |
| 20260505181622 | 84 | 38 | 0.0 | 12.0 | 0.00 | 0.00 | 0.00 | 33 | 1010.5 |
| 20260505181535 | 84 | 15 | 2.0 | 12.0 | 0.00 | 0.00 | 0.00 | 32 | 1010.7 |
| 20260505181532 | 83 | 20 | 2.0 | 12.0 | 0.00 | 0.00 | 0.00 | 32 | 1010.3 |
| 20260505181425 | 84 | 28 | 2.0 | 12.0 | 0.00 | 0.00 | 0.00 | 31 | 1010.7 |
| 20260505181313 | 84 | 19 | 1.0 | 9.0 | 0.00 | 0.00 | 0.00 | 32 | 1010.5 |
| 20260505181237 | 84 | 34 | 1.0 | 9.0 | 0.00 | 0.00 | 0.00 | 32 | 1010.6 |
| 20260505181122 | 84 | 44 | 1.0 | 10.0 | 0.00 | 0.00 | 0.00 | 33 | 1010.6 |
| 20260505181035 | 84 | 113 | 1.0 | 10.0 | 0.00 | 0.00 | 0.00 | 33 | 1010.7 |
| 20260505180921 | 84 | 53 | 0.0 | 10.0 | 0.00 | 0.00 | 0.00 | 33 | 1010.8 |
| 20260505180811 | 84 | 254 | 0.0 | 10.0 | 0.00 | 0.00 | 0.00 | 33 | 1010.8 |
| 20260505180717 | 84 | 305 | 0.0 | 10.0 | 0.00 | 0.00 | 0.00 | 33 | 1010.9 |
| 20260505180623 | 84 | 111 | 0.0 | 10.0 | 0.00 | 0.00 | 0.00 | 33 | 1010.9 |
| 20260505180536 | 84 | 287 | 0.0 | 10.0 | 0.00 | 0.00 | 0.00 | 33 | 1011.0 |
| 20260505180421 | 84 | 51 | 0.0 | 10.0 | 0.00 | 0.00 | 0.00 | 34 | 1011.0 |
| 20260505180347 | 84 | 360 | 1.0 | 10.0 | 0.00 | 0.00 | 0.00 | 32 | 1011.0 |
| 20260505180224 | 84 | 40 | 1.0 | 10.0 | 0.00 | 0.00 | 0.00 | 32 | 1011.0 |
| 20260505180129 | 84 | 270 | 1.0 | 10.0 | 0.00 | 0.00 | 0.00 | 31 | 1011.0 |
| 20260505180107 | 83 | 300 | 0.0 | 10.0 | 0.00 | 0.00 | 0.00 | 33 | 1010.6 |
| 20260505180035 | 84 | 102 | 1.0 | 10.0 | 0.00 | 0.00 | 0.00 | 33 | 1011.0 |
| 20260505175948 | 84 | 295 | 2.0 | 10.0 | 0.00 | 0.00 | 0.00 | 33 | 1011.0 |
| 20260505175813 | 84 | 15 | 4.0 | 10.0 | 0.00 | 0.00 | 0.00 | 33 | 1011.0 |
| 20260505175719 | 83 | 26 | 3.0 | 10.0 | 0.00 | 0.00 | 0.00 | 33 | 1011.0 |
| 20260505175609 | 83 | 27 | 2.0 | 10.0 | 0.00 | 0.00 | 0.00 | 34 | 1010.9 |
| 20260505175515 | 83 | 94 | 0.0 | 9.0 | 0.00 | 0.00 | 0.00 | 33 | 1010.9 |
| 20260505175428 | 83 | 284 | 0.0 | 9.0 | 0.00 | 0.00 | 0.00 | 33 | 1010.9 |
| 20260505175334 | 83 | 50 | 0.0 | 9.0 | 0.00 | 0.00 | 0.00 | 34 | 1011.0 |
| 20260505175220 | 83 | 313 | 1.0 | 11.0 | 0.00 | 0.00 | 0.00 | 33 | 1011.0 |
| 20260505175110 | 83 | 76 | 1.0 | 11.0 | 0.00 | 0.00 | 0.00 | 33 | 1011.2 |
| 20260505175016 | 83 | 78 | 1.0 | 11.0 | 0.00 | 0.00 | 0.00 | 36 | 1011.1 |
| 20260505174922 | 83 | 5 | 0.0 | 11.0 | 0.00 | 0.00 | 0.00 | 34 | 1011.1 |
| 20260505174835 | 83 | 28 | 0.0 | 11.0 | 0.00 | 0.00 | 0.00 | 34 | 1011.1 |
| 20260505174721 | 83 | 5 | 0.0 | 12.0 | 0.00 | 0.00 | 0.00 | 35 | 1011.0 |
| 20260505174627 | 83 | 26 | 0.0 | 12.0 | 0.00 | 0.00 | 0.00 | 36 | 1011.1 |
| 20260505174601 | 82 | 322 | 1.0 | 12.0 | 0.00 | 0.00 | 0.00 | 36 | 1010.7 |
| 20260505174516 | 83 | 34 | 2.0 | 12.0 | 0.00 | 0.00 | 0.00 | 34 | 1011.1 |
| 20260505174422 | 83 | 59 | 2.0 | 12.0 | 0.00 | 0.00 | 0.00 | 34 | 1011.1 |
| 20260505174328 | 83 | 109 | 2.0 | 12.0 | 0.00 | 0.00 | 0.00 | 37 | 1011.1 |
| 20260505174241 | 83 | 294 | 1.0 | 12.0 | 0.00 | 0.00 | 0.00 | 36 | 1011.1 |
| 20260505174118 | 83 | 5 | 1.0 | 12.0 | 0.00 | 0.00 | 0.00 | 35 | 1011.2 |
| 20260505174017 | 82 | 77 | 2.0 | 12.0 | 0.00 | 0.00 | 0.00 | 36 | 1011.2 |
| 20260505173931 | 82 | 323 | 1.0 | 12.0 | 0.00 | 0.00 | 0.00 | 35 | 1011.2 |
| 20260505173854 | 82 | 15 | 1.0 | 11.0 | 0.00 | 0.00 | 0.00 | 36 | 1011.1 |
| 20260505173732 | 82 | 5 | 3.0 | 11.0 | 0.00 | 0.00 | 0.00 | 36 | 1011.1 |
| 20260505173651 | 82 | 119 | 2.0 | 12.0 | 0.00 | 0.00 | 0.00 | 37 | 1011.1 |
| 20260505173534 | 82 | 55 | 1.0 | 12.0 | 0.00 | 0.00 | 0.00 | 37 | 1011.1 |
| 20260505173413 | 82 | 11 | 0.0 | 12.0 | 0.00 | 0.00 | 0.00 | 37 | 1011.1 |
| 20260505173326 | 82 | 10 | 0.0 | 12.0 | 0.00 | 0.00 | 0.00 | 38 | 1011.1 |
| 20260505173237 | 82 | 16 | 2.0 | 12.0 | 0.00 | 0.00 | 0.00 | 38 | 1011.1 |
| 20260505173122 | 82 | 181 | 2.0 | 12.0 | 0.00 | 0.00 | 0.00 | 38 | 1011.1 |
| 20260505173034 | 82 | 62 | 1.0 | 12.0 | 0.00 | 0.00 | 0.00 | 38 | 1011.1 |
| 20260505173015 | 81 | 5 | 1.0 | 12.0 | 0.00 | 0.00 | 0.00 | 37 | 1010.7 |
| 20260505172941 | 82 | 269 | 3.0 | 12.0 | 0.00 | 0.00 | 0.00 | 37 | 1011.1 |
| 20260505172825 | 82 | 74 | 4.0 | 12.0 | 0.00 | 0.00 | 0.00 | 37 | 1011.1 |
| 20260505172739 | 82 | 12 | 3.0 | 10.0 | 0.00 | 0.00 | 0.00 | 38 | 1011.2 |
| 20260505172623 | 82 | 65 | 2.0 | 10.0 | 0.00 | 0.00 | 0.00 | 38 | 1011.2 |
| 20260505172513 | 82 | 119 | 2.0 | 10.0 | 0.00 | 0.00 | 0.00 | 38 | 1011.2 |
| 20260505172420 | 82 | 91 | 2.0 | 10.0 | 0.00 | 0.00 | 0.00 | 38 | 1011.2 |
| 20260505172325 | 82 | 59 | 0.0 | 10.0 | 0.00 | 0.00 | 0.00 | 39 | 1011.1 |
| 20260505172211 | 82 | 188 | 2.0 | 10.0 | 0.00 | 0.00 | 0.00 | 38 | 1011.1 |
| 20260505172124 | 82 | 102 | 2.0 | 10.0 | 0.00 | 0.00 | 0.00 | 38 | 1011.1 |
| 20260505172014 | 82 | 19 | 2.0 | 10.0 | 0.00 | 0.00 | 0.00 | 39 | 1011.1 |
| 20260505171920 | 82 | 57 | 2.0 | 10.0 | 0.00 | 0.00 | 0.00 | 41 | 1011.1 |
| 20260505171826 | 82 | 79 | 1.0 | 11.0 | 0.00 | 0.00 | 0.00 | 39 | 1011.1 |
| 20260505171739 | 82 | 55 | 1.0 | 11.0 | 0.00 | 0.00 | 0.00 | 40 | 1011.2 |
| 20260505171621 | 82 | 17 | 2.0 | 11.0 | 0.00 | 0.00 | 0.00 | 42 | 1011.2 |
| 20260505171556 | 82 | 181 | 5.0 | 11.0 | 0.00 | 0.00 | 0.00 | 39 | 1011.1 |
| 20260505171503 | 81 | 79 | 4.0 | 11.0 | 0.00 | 0.00 | 0.00 | 39 | 1010.7 |
| 20260505171417 | 82 | 15 | 3.0 | 11.0 | 0.00 | 0.00 | 0.00 | 40 | 1011.2 |
| 20260505171326 | 82 | 40 | 1.0 | 11.0 | 0.00 | 0.00 | 0.00 | 40 | 1011.2 |
| 20260505171212 | 82 | 16 | 2.0 | 11.0 | 0.00 | 0.00 | 0.00 | 40 | 1011.3 |
| 20260505171118 | 82 | 63 | 4.0 | 11.0 | 0.00 | 0.00 | 0.00 | 39 | 1011.3 |
| 20260505171031 | 82 | 73 | 3.0 | 11.0 | 0.00 | 0.00 | 0.00 | 39 | 1011.3 |
| 20260505170917 | 82 | 69 | 2.0 | 11.0 | 0.00 | 0.00 | 0.00 | 40 | 1011.3 |
| 20260505170843 | 82 | 13 | 2.0 | 11.0 | 0.00 | 0.00 | 0.00 | 40 | 1011.3 |
| 20260505170712 | 82 | 42 | 0.0 | 9.0 | 0.00 | 0.00 | 0.00 | 41 | 1011.3 |
| 20260505170625 | 82 | 254 | 0.0 | 9.0 | 0.00 | 0.00 | 0.00 | 41 | 1011.3 |
| 20260505170531 | 82 | 40 | 0.0 | 9.0 | 0.00 | 0.00 | 0.00 | 40 | 1011.3 |
| 20260505170414 | 82 | 89 | 1.0 | 9.0 | 0.00 | 0.00 | 0.00 | 39 | 1011.3 |
| 20260505170320 | 82 | 271 | 3.0 | 9.0 | 0.00 | 0.00 | 0.00 | 39 | 1011.3 |
| 20260505170210 | 83 | 70 | 4.0 | 9.0 | 0.00 | 0.00 | 0.00 | 39 | 1011.4 |
| 20260505170143 | 83 | 25 | 2.0 | 9.0 | 0.00 | 0.00 | 0.00 | 39 | 1011.4 |
| 20260505170027 | 83 | 105 | 1.0 | 9.0 | 0.00 | 0.00 | 0.00 | 38 | 1011.4 |
| 20260505165913 | 83 | 48 | 0.0 | 8.0 | 0.00 | 0.00 | 0.00 | 38 | 1011.4 |
| 20260505165826 | 83 | 93 | 0.0 | 9.0 | 0.00 | 0.00 | 0.00 | 36 | 1011.4 |
| 20260505165712 | 83 | 293 | 0.0 | 9.0 | 0.00 | 0.00 | 0.00 | 36 | 1011.5 |
| 20260505165622 | 83 | 67 | 0.0 | 9.0 | 0.00 | 0.00 | 0.00 | 36 | 1011.5 |
| 20260505165555 | 83 | 86 | 0.0 | 9.0 | 0.00 | 0.00 | 0.00 | 36 | 1011.4 |
| 20260505165413 | 82 | 324 | 0.0 | 9.0 | 0.00 | 0.00 | 0.00 | 39 | 1011.5 |
| 20260505165326 | 82 | 40 | 1.0 | 9.0 | 0.00 | 0.00 | 0.00 | 36 | 1011.5 |
| 20260505165212 | 82 | 94 | 1.0 | 9.0 | 0.00 | 0.00 | 0.00 | 36 | 1011.6 |
| 20260505165115 | 82 | 329 | 2.0 | 9.0 | 0.00 | 0.00 | 0.00 | 37 | 1011.6 |
| 20260505165022 | 82 | 59 | 2.0 | 9.0 | 0.00 | 0.00 | 0.00 | 36 | 1011.5 |
| 20260505164949 | 82 | 18 | 0.0 | 11.0 | 0.00 | 0.00 | 0.00 | 36 | 1011.5 |
| 20260505164814 | 81 | 337 | 0.0 | 11.0 | 0.00 | 0.00 | 0.00 | 35 | 1011.5 |
| 20260505164720 | 81 | 12 | 1.0 | 11.0 | 0.00 | 0.00 | 0.00 | 37 | 1011.5 |
| 20260505164653 | 81 | 55 | 1.0 | 11.0 | 0.00 | 0.00 | 0.00 | 34 | 1011.6 |
| 20260505164518 | 81 | 310 | 0.0 | 11.0 | 0.00 | 0.00 | 0.00 | 35 | 1011.6 |
| 20260505164417 | 81 | 196 | 0.0 | 11.0 | 0.00 | 0.00 | 0.00 | 36 | 1011.7 |
| 20260505164331 | 81 | 172 | 2.0 | 11.0 | 0.00 | 0.00 | 0.00 | 34 | 1011.7 |
| 20260505164216 | 81 | 315 | 3.0 | 11.0 | 0.00 | 0.00 | 0.00 | 34 | 1011.7 |
| 20260505164122 | 81 | 338 | 2.0 | 8.0 | 0.00 | 0.00 | 0.00 | 35 | 1011.7 |
| 20260505164034 | 82 | 88 | 2.0 | 8.0 | 0.00 | 0.00 | 0.00 | 36 | 1011.7 |
| 20260505163918 | 82 | 355 | 0.0 | 1.0 | 0.00 | 0.00 | 0.00 | 34 | 1011.8 |
| 20260505163821 | 82 | 312 | 0.0 | 1.0 | 0.00 | 0.00 | 0.00 | 35 | 1011.8 |
| 20260505163711 | 82 | 48 | 0.0 | 1.0 | 0.00 | 0.00 | 0.00 | 36 | 1011.7 |
| 20260505163618 | 82 | 63 | 0.0 | 1.0 | 0.00 | 0.00 | 0.00 | 35 | 1011.8 |
| 20260505163523 | 82 | 19 | 0.0 | 1.0 | 0.00 | 0.00 | 0.00 | 35 | 1011.8 |
| 20260505163410 | 82 | 40 | 0.0 | 1.0 | 0.00 | 0.00 | 0.00 | 35 | 1011.9 |
| 20260505163323 | 82 | 36 | 0.0 | 1.0 | 0.00 | 0.00 | 0.00 | 36 | 1011.9 |
| 20260505163212 | 82 | 248 | 0.0 | 1.0 | 0.00 | 0.00 | 0.00 | 35 | 1011.9 |
| 20260505163138 | 82 | 329 | 0.0 | 9.0 | 0.00 | 0.00 | 0.00 | 38 | 1011.9 |
| 20260505163027 | 82 | 44 | 0.0 | 9.0 | 0.00 | 0.00 | 0.00 | 39 | 1011.9 |
| 20260505163012 | 81 | 84 | 0.0 | 9.0 | 0.00 | 0.00 | 0.00 | 39 | 1011.6 |
| 20260505162913 | 82 | 119 | 0.0 | 9.0 | 0.00 | 0.00 | 0.00 | 35 | 1011.9 |
| 20260505162819 | 82 | 52 | 0.0 | 9.0 | 0.00 | 0.00 | 0.00 | 36 | 1011.9 |
| 20260505162752 | 82 | 139 | 0.0 | 9.0 | 0.00 | 0.00 | 0.00 | 34 | 1011.9 |
| 20260505162609 | 82 | 55 | 0.0 | 9.0 | 0.00 | 0.00 | 0.00 | 37 | 1011.9 |
| 20260505162546 | 82 | 107 | 0.0 | 9.0 | 0.00 | 0.00 | 0.00 | 36 | 1011.9 |
| 20260505162411 | 82 | 82 | 1.0 | 9.0 | 0.00 | 0.00 | 0.00 | 36 | 1011.9 |
| 20260505162317 | 82 | 108 | 1.0 | 11.0 | 0.00 | 0.00 | 0.00 | 35 | 1012.0 |
| 20260505162230 | 82 | 355 | 2.0 | 11.0 | 0.00 | 0.00 | 0.00 | 35 | 1012.0 |
| 20260505162117 | 82 | 251 | 2.0 | 11.0 | 0.00 | 0.00 | 0.00 | 36 | 1012.0 |
| 20260505162023 | 82 | 316 | 3.0 | 11.0 | 0.00 | 0.00 | 0.00 | 35 | 1012.0 |
| 20260505161932 | 82 | 294 | 2.0 | 11.0 | 0.00 | 0.00 | 0.00 | 36 | 1012.0 |
| 20260505161825 | 81 | 15 | 0.0 | 11.0 | 0.00 | 0.00 | 0.00 | 36 | 1012.0 |
| 20260505161712 | 81 | 71 | 1.0 | 11.0 | 0.00 | 0.00 | 0.00 | 36 | 1012.0 |
| 20260505161618 | 81 | 22 | 1.0 | 11.0 | 0.00 | 0.00 | 0.00 | 34 | 1012.0 |
| 20260505161616 | 81 | 266 | 2.0 | 11.0 | 0.00 | 0.00 | 0.00 | 35 | 1011.7 |
| 20260505161543 | 82 | 334 | 3.0 | 11.0 | 0.00 | 0.00 | 0.00 | 35 | 1012.0 |
| 20260505161435 | 82 | 267 | 4.0 | 11.0 | 0.00 | 0.00 | 0.00 | 34 | 1012.0 |
| 20260505161325 | 82 | 329 | 1.0 | 10.0 | 0.00 | 0.00 | 0.00 | 37 | 1012.1 |
| 20260505161211 | 82 | 5 | 0.0 | 5.0 | 0.00 | 0.00 | 0.00 | 37 | 1012.1 |
| 20260505161117 | 82 | 70 | 0.0 | 5.0 | 0.00 | 0.00 | 0.00 | 40 | 1012.1 |
| 20260505161023 | 82 | 86 | 0.0 | 5.0 | 0.00 | 0.00 | 0.00 | 36 | 1012.1 |
| 20260505160909 | 81 | 5 | 1.0 | 9.0 | 0.00 | 0.00 | 0.00 | 36 | 1012.1 |
| 20260505160821 | 81 | 243 | 1.0 | 9.0 | 0.00 | 0.00 | 0.00 | 36 | 1012.1 |
| 20260505160711 | 81 | 47 | 1.0 | 9.0 | 0.00 | 0.00 | 0.00 | 36 | 1012.1 |
| 20260505160617 | 81 | 316 | 0.0 | 9.0 | 0.00 | 0.00 | 0.00 | 36 | 1012.1 |
| 20260505160550 | 81 | 77 | 0.0 | 9.0 | 0.00 | 0.00 | 0.00 | 37 | 1012.1 |
| 20260505160415 | 81 | 53 | 0.0 | 9.0 | 0.00 | 0.00 | 0.00 | 37 | 1012.1 |
| 20260505160321 | 81 | 332 | 1.0 | 9.0 | 0.00 | 0.00 | 0.00 | 37 | 1012.1 |
| 20260505160224 | 81 | 273 | 1.0 | 9.0 | 0.00 | 0.00 | 0.00 | 36 | 1012.2 |
| 20260505160114 | 81 | 19 | 1.0 | 10.0 | 0.00 | 0.00 | 0.00 | 37 | 1012.2 |
| 20260505153319 | 80 | 5 | 1.0 | 14.0 | 0.00 | 0.00 | 0.00 | 37 | 1012.6 |
| 20260505153209 | 80 | 53 | 0.0 | 14.0 | 0.00 | 0.00 | 0.00 | 38 | 1012.6 |
| 20260505153115 | 80 | 270 | 0.0 | 14.0 | 0.00 | 0.00 | 0.00 | 39 | 1012.6 |
| 20260505153050 | 80 | 60 | 0.0 | 14.0 | 0.00 | 0.00 | 0.00 | 37 | 1012.3 |
| 20260505153021 | 80 | 74 | 0.0 | 14.0 | 0.00 | 0.00 | 0.00 | 37 | 1012.6 |
| 20260505152927 | 80 | 290 | 4.0 | 14.0 | 0.00 | 0.00 | 0.00 | 40 | 1012.6 |
| 20260505152813 | 80 | 267 | 4.0 | 14.0 | 0.00 | 0.00 | 0.00 | 41 | 1012.6 |
| 20260505152730 | 80 | 26 | 1.0 | 10.0 | 0.00 | 0.00 | 0.00 | 40 | 1012.6 |
| 20260505152617 | 80 | 59 | 0.0 | 10.0 | 0.00 | 0.00 | 0.00 | 41 | 1012.6 |
| 20260505152542 | 80 | 69 | 0.0 | 10.0 | 0.00 | 0.00 | 0.00 | 40 | 1012.6 |
| 20260505152434 | 80 | 70 | 1.0 | 10.0 | 0.00 | 0.00 | 0.00 | 39 | 1012.7 |
| 20260505152321 | 80 | 259 | 1.0 | 10.0 | 0.00 | 0.00 | 0.00 | 39 | 1012.6 |
| 20260505152227 | 80 | 302 | 1.0 | 9.0 | 0.00 | 0.00 | 0.00 | 38 | 1012.6 |
| 20260505152114 | 80 | 313 | 1.0 | 10.0 | 0.00 | 0.00 | 0.00 | 41 | 1012.6 |
| 20260505152020 | 79 | 38 | 1.0 | 10.0 | 0.00 | 0.00 | 0.00 | 39 | 1012.6 |
| 20260505151953 | 79 | 355 | 1.0 | 10.0 | 0.00 | 0.00 | 0.00 | 40 | 1012.5 |
| 20260505151818 | 79 | 43 | 3.0 | 10.0 | 0.00 | 0.00 | 0.00 | 39 | 1012.6 |
| 20260505151724 | 80 | 309 | 3.0 | 10.0 | 0.00 | 0.00 | 0.00 | 38 | 1012.6 |
| 20260505151610 | 80 | 88 | 1.0 | 10.0 | 0.00 | 0.00 | 0.00 | 38 | 1012.5 |
| 20260505151540 | 79 | 18 | 1.0 | 10.0 | 0.00 | 0.00 | 0.00 | 38 | 1012.2 |
| 20260505151520 | 80 | 26 | 2.0 | 10.0 | 0.00 | 0.00 | 0.00 | 39 | 1012.5 |
| 20260505151433 | 79 | 319 | 2.0 | 10.0 | 0.00 | 0.00 | 0.00 | 39 | 1012.5 |
| 20260505151320 | 79 | 330 | 3.0 | 10.0 | 0.00 | 0.00 | 0.00 | 38 | 1012.5 |
| 20260505151245 | 79 | 299 | 2.0 | 9.0 | 0.00 | 0.00 | 0.00 | 40 | 1012.6 |
| 20260505151110 | 79 | 36 | 2.0 | 13.0 | 0.00 | 0.00 | 0.00 | 40 | 1012.4 |
| 20260505151016 | 79 | 290 | 2.0 | 13.0 | 0.00 | 0.00 | 0.00 | 40 | 1012.4 |
| 20260505150933 | 79 | 63 | 1.0 | 13.0 | 0.00 | 0.00 | 0.00 | 43 | 1012.5 |
| 20260505150818 | 79 | 5 | 1.0 | 13.0 | 0.00 | 0.00 | 0.00 | 40 | 1012.4 |
| 20260505150724 | 79 | 13 | 1.0 | 13.0 | 0.00 | 0.00 | 0.00 | 40 | 1012.4 |
| 20260505150610 | 79 | 28 | 0.0 | 13.0 | 0.00 | 0.00 | 0.00 | 41 | 1012.4 |
| 20260505150523 | 79 | 69 | 1.0 | 13.0 | 0.00 | 0.00 | 0.00 | 41 | 1012.4 |
| 20260505150411 | 79 | 34 | 3.0 | 13.0 | 0.00 | 0.00 | 0.00 | 43 | 1012.5 |
| 20260505150338 | 79 | 143 | 2.0 | 13.0 | 0.00 | 0.00 | 0.00 | 42 | 1012.5 |
| 20260505150229 | 79 | 26 | 0.0 | 11.0 | 0.00 | 0.00 | 0.00 | 42 | 1012.5 |
| 20260505150136 | 79 | 33 | 0.0 | 11.0 | 0.00 | 0.00 | 0.00 | 43 | 1012.5 |
| 20260505140624 | 74 | 304 | 0.0 | 3.0 | 0.00 | 0.00 | 0.00 | 55 | 1012.7 |
| 20260505140509 | 74 | 34 | 0.0 | 3.0 | 0.00 | 0.00 | 0.00 | 56 | 1012.6 |
| 20260505140415 | 74 | 26 | 0.0 | 2.0 | 0.00 | 0.00 | 0.00 | 55 | 1012.6 |
| 20260505140342 | 74 | 348 | 0.0 | 2.0 | 0.00 | 0.00 | 0.00 | 56 | 1012.6 |
| 20260505140233 | 73 | 5 | 0.0 | 2.0 | 0.00 | 0.00 | 0.00 | 56 | 1012.6 |
| 20260505140123 | 73 | 19 | 0.0 | 2.0 | 0.00 | 0.00 | 0.00 | 57 | 1012.6 |
| 20260505130310 | 61 | 42 | 0.0 | 0.0 | 0.00 | 0.00 | 0.00 | 75 | 1013.1 |
| 20260505130217 | 61 | 350 | 0.0 | 0.0 | 0.00 | 0.00 | 0.00 | 77 | 1013.1 |
| 20260505130112 | 61 | 53 | 0.0 | 0.0 | 0.00 | 0.00 | 0.00 | 77 | 1013.1 |
| 20260505124910 | 58 | 56 | 0.0 | 0.0 | 0.00 | 0.00 | 0.00 | 83 | 1013.2 |
| 20260505124816 | 58 | 56 | 0.0 | 0.0 | 0.00 | 0.00 | 0.00 | 82 | 1013.2 |
| 20260505124749 | 58 | 57 | 0.0 | 0.0 | 0.00 | 0.00 | 0.00 | 83 | 1013.2 |
| 20260505124634 | 57 | 57 | 0.0 | 0.0 | 0.00 | 0.00 | 0.00 | 83 | 1013.3 |
| 20260505124540 | 57 | 57 | 0.0 | 0.0 | 0.00 | 0.00 | 0.00 | 83 | 1013.0 |
| 20260505124519 | 57 | 57 | 0.0 | 0.0 | 0.00 | 0.00 | 0.00 | 83 | 1013.3 |
| 20260505124409 | 57 | 57 | 0.0 | 0.0 | 0.00 | 0.00 | 0.00 | 84 | 1013.3 |
| 20260505124322 | 57 | 57 | 0.0 | 0.0 | 0.00 | 0.00 | 0.00 | 85 | 1013.3 |
| 20260505124248 | 56 | 57 | 0.0 | 0.0 | 0.00 | 0.00 | 0.00 | 85 | 1013.3 |
| 20260505124113 | 56 | 76 | 0.0 | 0.0 | 0.00 | 0.00 | 0.00 | 86 | 1013.3 |
| 20260505124019 | 56 | 76 | 0.0 | 0.0 | 0.00 | 0.00 | 0.00 | 88 | 1013.3 |
| 20260505123932 | 56 | 76 | 0.0 | 0.0 | 0.00 | 0.00 | 0.00 | 89 | 1013.3 |
| 20260505123822 | 55 | 73 | 0.0 | 0.0 | 0.00 | 0.00 | 0.00 | 90 | 1013.3 |
| 20260505123748 | 55 | 73 | 0.0 | 0.0 | 0.00 | 0.00 | 0.00 | 91 | 1013.3 |
| 20260505123612 | 55 | 76 | 0.0 | 0.0 | 0.00 | 0.00 | 0.00 | 91 | 1013.3 |
| 20260505123526 | 55 | 76 | 0.0 | 0.0 | 0.00 | 0.00 | 0.00 | 91 | 1013.3 |
| 20260505123411 | 54 | 76 | 0.0 | 0.0 | 0.00 | 0.00 | 0.00 | 92 | 1013.4 |
| 20260505123321 | 54 | 76 | 0.0 | 0.0 | 0.00 | 0.00 | 0.00 | 92 | 1013.4 |
| 20260505123254 | 54 | 76 | 0.0 | 0.0 | 0.00 | 0.00 | 0.00 | 94 | 1013.4 |
| 20260505123139 | 54 | 76 | 0.0 | 0.0 | 0.00 | 0.00 | 0.00 | 96 | 1013.5 |
| 20260505123051 | 53 | 76 | 0.0 | 0.0 | 0.00 | 0.00 | 0.00 | 96 | 1013.3 |
| 20260505123024 | 54 | 76 | 0.0 | 0.0 | 0.00 | 0.00 | 0.00 | 96 | 1013.5 |
| 20260505122910 | 53 | 76 | 0.0 | 0.0 | 0.00 | 0.00 | 0.00 | 96 | 1013.5 |
| 20260505122816 | 53 | 76 | 0.0 | 0.0 | 0.00 | 0.00 | 0.00 | 96 | 1013.6 |
| 20260505122749 | 53 | 76 | 0.0 | 0.0 | 0.00 | 0.00 | 0.00 | 96 | 1013.6 |
| 20260505122639 | 53 | 76 | 0.0 | 0.0 | 0.00 | 0.00 | 0.00 | 96 | 1013.5 |
| 20260505122530 | 53 | 76 | 0.0 | 0.0 | 0.00 | 0.00 | 0.00 | 96 | 1013.5 |
| 20260505122417 | 53 | 76 | 0.0 | 0.0 | 0.00 | 0.00 | 0.00 | 96 | 1013.5 |
| 20260505122322 | 53 | 76 | 0.0 | 0.0 | 0.00 | 0.00 | 0.00 | 96 | 1013.5 |
| 20260505122228 | 53 | 76 | 0.0 | 0.0 | 0.00 | 0.00 | 0.00 | 96 | 1013.5 |
| 20260505122114 | 53 | 76 | 0.0 | 0.0 | 0.00 | 0.00 | 0.00 | 96 | 1013.5 |
| 20260505122051 | 52 | 76 | 0.0 | 0.0 | 0.00 | 0.00 | 0.00 | 96 | 1013.5 |
| 20260505121916 | 52 | 76 | 0.0 | 0.0 | 0.00 | 0.00 | 0.00 | 96 | 1013.6 |
| 20260505121822 | 52 | 76 | 0.0 | 0.0 | 0.00 | 0.00 | 0.00 | 96 | 1013.6 |
| 20260505121728 | 52 | 76 | 0.0 | 0.0 | 0.00 | 0.00 | 0.00 | 96 | 1013.7 |
| 20260505121614 | 52 | 76 | 0.0 | 0.0 | 0.00 | 0.00 | 0.00 | 96 | 1013.6 |
| 20260505121527 | 52 | 76 | 0.0 | 0.0 | 0.00 | 0.00 | 0.00 | 96 | 1013.6 |
| 20260505121518 | 51 | 76 | 0.0 | 0.0 | 0.00 | 0.00 | 0.00 | 96 | 1013.3 |
| 20260505121437 | 52 | 76 | 0.0 | 0.0 | 0.00 | 0.00 | 0.00 | 96 | 1013.6 |
| 20260505121349 | 52 | 76 | 0.0 | 0.0 | 0.00 | 0.00 | 0.00 | 96 | 1013.6 |
| 20260505121234 | 51 | 76 | 0.0 | 0.0 | 0.00 | 0.00 | 0.00 | 96 | 1013.6 |
| 20260505121109 | 51 | 76 | 0.0 | 0.0 | 0.00 | 0.00 | 0.00 | 96 | 1013.6 |
| 20260505121015 | 51 | 76 | 0.0 | 0.0 | 0.00 | 0.00 | 0.00 | 96 | 1013.6 |
| 20260505120918 | 51 | 76 | 0.0 | 0.0 | 0.00 | 0.00 | 0.00 | 96 | 1013.6 |
| 20260505120835 | 51 | 76 | 0.0 | 0.0 | 0.00 | 0.00 | 0.00 | 96 | 1013.6 |
| 20260505120718 | 51 | 76 | 0.0 | 0.0 | 0.00 | 0.00 | 0.00 | 96 | 1013.5 |
| 20260505120621 | 51 | 76 | 0.0 | 0.0 | 0.00 | 0.00 | 0.00 | 96 | 1013.5 |
| 20260505120524 | 50 | 76 | 0.0 | 0.0 | 0.00 | 0.00 | 0.00 | 96 | 1013.5 |
| 20260505120410 | 50 | 76 | 0.0 | 0.0 | 0.00 | 0.00 | 0.00 | 96 | 1013.5 |
| 20260505120316 | 50 | 76 | 0.0 | 0.0 | 0.00 | 0.00 | 0.00 | 96 | 1013.6 |
| 20260505120214 | 50 | 76 | 0.0 | 0.0 | 0.00 | 0.00 | 0.00 | 96 | 1013.5 |
| 20260505120139 | 50 | 76 | 0.0 | 0.0 | 0.00 | 0.00 | 0.00 | 96 | 1013.5 |
| 20260505120051 | 49 | 76 | 0.0 | 0.0 | 0.00 | 0.00 | 0.00 | 96 | 1013.6 |
| 20260505120021 | 49 | 76 | 0.0 | 0.0 | 0.00 | 0.00 | 0.00 | 96 | 1013.3 |
| 20260505115916 | 49 | 76 | 0.0 | 0.0 | 0.00 | 0.00 | 0.00 | 96 | 1013.5 |
| 20260505115821 | 49 | 76 | 0.0 | 0.0 | 0.00 | 0.00 | 0.00 | 96 | 1013.5 |
| 20260505115727 | 49 | 76 | 0.0 | 0.0 | 0.00 | 0.00 | 0.00 | 96 | 1013.5 |
| 20260505115617 | 48 | 76 | 0.0 | 0.0 | 0.00 | 0.00 | 0.00 | 96 | 1013.4 |
| 20260505115530 | 48 | 76 | 0.0 | 0.0 | 0.00 | 0.00 | 0.00 | 96 | 1013.4 |
| 20260505115435 | 48 | 76 | 0.0 | 0.0 | 0.00 | 0.00 | 0.00 | 96 | 1013.4 |
| 20260505115347 | 48 | 76 | 0.0 | 0.0 | 0.00 | 0.00 | 0.00 | 95 | 1013.4 |
| 20260505115232 | 48 | 76 | 0.0 | 0.0 | 0.00 | 0.00 | 0.00 | 96 | 1013.3 |
| 20260505115144 | 48 | 76 | 0.0 | 0.0 | 0.00 | 0.00 | 0.00 | 96 | 1013.3 |
| 20260505115056 | 48 | 76 | 0.0 | 0.0 | 0.00 | 0.00 | 0.00 | 96 | 1013.4 |
| 20260505114914 | 47 | 76 | 0.0 | 0.0 | 0.00 | 0.00 | 0.00 | 96 | 1013.4 |
| 20260505114831 | 47 | 76 | 0.0 | 0.0 | 0.00 | 0.00 | 0.00 | 96 | 1013.4 |
| 20260505114717 | 47 | 76 | 0.0 | 0.0 | 0.00 | 0.00 | 0.00 | 96 | 1013.3 |
| 20260505114643 | 47 | 76 | 0.0 | 0.0 | 0.00 | 0.00 | 0.00 | 95 | 1013.3 |
| 20260505114534 | 47 | 76 | 0.0 | 0.0 | 0.00 | 0.00 | 0.00 | 95 | 1013.3 |
| 20260505114517 | 47 | 76 | 0.0 | 0.0 | 0.00 | 0.00 | 0.00 | 95 | 1013.0 |
| 20260505114421 | 47 | 76 | 0.0 | 0.0 | 0.00 | 0.00 | 0.00 | 95 | 1013.3 |
| 20260505114310 | 47 | 76 | 0.0 | 0.0 | 0.00 | 0.00 | 0.00 | 95 | 1013.2 |
| 20260505114217 | 47 | 76 | 0.0 | 0.0 | 0.00 | 0.00 | 0.00 | 95 | 1013.2 |
| 20260505114150 | 47 | 76 | 0.0 | 0.0 | 0.00 | 0.00 | 0.00 | 95 | 1013.2 |
| 20260505114034 | 47 | 76 | 0.0 | 0.0 | 0.00 | 0.00 | 0.00 | 95 | 1013.2 |
| 20260505113921 | 47 | 76 | 0.0 | 0.0 | 0.00 | 0.00 | 0.00 | 95 | 1013.2 |
| 20260505113826 | 47 | 76 | 0.0 | 0.0 | 0.00 | 0.00 | 0.00 | 95 | 1013.1 |
| 20260505113717 | 46 | 76 | 0.0 | 0.0 | 0.00 | 0.00 | 0.00 | 95 | 1013.2 |
| 20260505113622 | 46 | 76 | 0.0 | 0.0 | 0.00 | 0.00 | 0.00 | 95 | 1013.2 |
| 20260505113535 | 46 | 76 | 0.0 | 0.0 | 0.00 | 0.00 | 0.00 | 95 | 1013.1 |
| 20260505113422 | 46 | 76 | 0.0 | 0.0 | 0.00 | 0.00 | 0.00 | 95 | 1013.1 |
| 20260505113328 | 46 | 76 | 0.0 | 0.0 | 0.00 | 0.00 | 0.00 | 95 | 1013.2 |
| 20260505113213 | 46 | 76 | 0.0 | 0.0 | 0.00 | 0.00 | 0.00 | 95 | 1013.2 |
| 20260505113123 | 46 | 76 | 0.0 | 0.0 | 0.00 | 0.00 | 0.00 | 95 | 1013.2 |
| 20260505113045 | 46 | 76 | 0.0 | 0.0 | 0.00 | 0.00 | 0.00 | 95 | 1013.0 |
| 20260505113009 | 46 | 76 | 0.0 | 0.0 | 0.00 | 0.00 | 0.00 | 95 | 1013.2 |
| 20260505112915 | 46 | 76 | 0.0 | 0.0 | 0.00 | 0.00 | 0.00 | 95 | 1013.2 |
| 20260505112848 | 46 | 76 | 0.0 | 0.0 | 0.00 | 0.00 | 0.00 | 95 | 1013.2 |
| 20260505112734 | 46 | 76 | 0.0 | 0.0 | 0.00 | 0.00 | 0.00 | 95 | 1013.2 |
| 20260505112626 | 46 | 76 | 0.0 | 0.0 | 0.00 | 0.00 | 0.00 | 95 | 1013.2 |
| 20260505112516 | 46 | 76 | 0.0 | 0.0 | 0.00 | 0.00 | 0.00 | 95 | 1013.3 |
| 20260505112433 | 46 | 76 | 0.0 | 0.0 | 0.00 | 0.00 | 0.00 | 95 | 1013.2 |
| 20260505112325 | 46 | 76 | 0.0 | 0.0 | 0.00 | 0.00 | 0.00 | 95 | 1013.2 |
| 20260505112212 | 46 | 76 | 0.0 | 0.0 | 0.00 | 0.00 | 0.00 | 95 | 1013.3 |
| 20260505112117 | 46 | 76 | 0.0 | 0.0 | 0.00 | 0.00 | 0.00 | 95 | 1013.3 |
| 20260505112043 | 46 | 76 | 0.0 | 0.0 | 0.00 | 0.00 | 0.00 | 95 | 1013.3 |
| 20260505111912 | 46 | 76 | 0.0 | 0.0 | 0.00 | 0.00 | 0.00 | 95 | 1013.3 |
| 20260505111825 | 46 | 76 | 0.0 | 0.0 | 0.00 | 0.00 | 0.00 | 95 | 1013.3 |
| 20260505111711 | 46 | 76 | 0.0 | 0.0 | 0.00 | 0.00 | 0.00 | 95 | 1013.3 |
| 20260505111617 | 46 | 76 | 0.0 | 0.0 | 0.00 | 0.00 | 0.00 | 95 | 1013.3 |
| 20260505111545 | 45 | 76 | 0.0 | 0.0 | 0.00 | 0.00 | 0.00 | 95 | 1013.1 |
| 20260505111523 | 46 | 76 | 0.0 | 0.0 | 0.00 | 0.00 | 0.00 | 95 | 1013.3 |
| 20260505111409 | 45 | 76 | 0.0 | 0.0 | 0.00 | 0.00 | 0.00 | 95 | 1013.2 |
| 20260505111326 | 45 | 76 | 0.0 | 0.0 | 0.00 | 0.00 | 0.00 | 95 | 1013.2 |
| 20260505111232 | 45 | 76 | 0.0 | 0.0 | 0.00 | 0.00 | 0.00 | 95 | 1013.2 |
| 20260505111118 | 45 | 76 | 0.0 | 0.0 | 0.00 | 0.00 | 0.00 | 95 | 1013.2 |
| 20260505111024 | 45 | 76 | 0.0 | 0.0 | 0.00 | 0.00 | 0.00 | 95 | 1013.2 |
| 20260505110930 | 45 | 76 | 0.0 | 0.0 | 0.00 | 0.00 | 0.00 | 95 | 1013.1 |
| 20260505110822 | 45 | 76 | 0.0 | 0.0 | 0.00 | 0.00 | 0.00 | 95 | 1013.1 |
| 20260505110712 | 45 | 76 | 0.0 | 0.0 | 0.00 | 0.00 | 0.00 | 95 | 1013.1 |
| 20260505110618 | 45 | 76 | 0.0 | 0.0 | 0.00 | 0.00 | 0.00 | 95 | 1013.1 |
| 20260505110524 | 45 | 76 | 0.0 | 0.0 | 0.00 | 0.00 | 0.00 | 95 | 1013.2 |
| 20260505110410 | 45 | 76 | 0.0 | 0.0 | 0.00 | 0.00 | 0.00 | 95 | 1013.1 |
| 20260505110316 | 45 | 76 | 0.0 | 0.0 | 0.00 | 0.00 | 0.00 | 95 | 1013.1 |
| 20260505110233 | 45 | 76 | 0.0 | 0.0 | 0.00 | 0.00 | 0.00 | 95 | 1013.1 |
| 20260505110118 | 45 | 76 | 0.0 | 0.0 | 0.00 | 0.00 | 0.00 | 95 | 1013.1 |
| 20260505102131 | 44 | 76 | 0.0 | 0.0 | 0.00 | 0.00 | 0.00 | 94 | 1012.8 |
| 20260505102016 | 44 | 76 | 0.0 | 0.0 | 0.00 | 0.00 | 0.00 | 94 | 1012.8 |
| 20260505101922 | 44 | 76 | 0.0 | 0.0 | 0.00 | 0.00 | 0.00 | 94 | 1012.8 |
| 20260505101835 | 44 | 76 | 0.0 | 0.0 | 0.00 | 0.00 | 0.00 | 94 | 1012.7 |
| 20260505101741 | 44 | 76 | 0.0 | 0.0 | 0.00 | 0.00 | 0.00 | 94 | 1012.7 |
| 20260505101630 | 44 | 76 | 0.0 | 0.0 | 0.00 | 0.00 | 0.00 | 94 | 1012.7 |
| 20260505101522 | 44 | 76 | 0.0 | 0.0 | 0.00 | 0.00 | 0.00 | 94 | 1012.7 |
| 20260505101513 | 43 | 76 | 0.0 | 0.0 | 0.00 | 0.00 | 0.00 | 94 | 1012.4 |
| 20260505101428 | 44 | 76 | 0.0 | 0.0 | 0.00 | 0.00 | 0.00 | 94 | 1012.6 |
| 20260505101334 | 44 | 76 | 0.0 | 0.0 | 0.00 | 0.00 | 0.00 | 94 | 1012.6 |
| 20260505101226 | 44 | 76 | 0.0 | 0.0 | 0.00 | 0.00 | 0.00 | 94 | 1012.6 |
| 20260505101132 | 44 | 76 | 0.0 | 0.0 | 0.00 | 0.00 | 0.00 | 94 | 1012.6 |
| 20260505101017 | 44 | 76 | 0.0 | 0.0 | 0.00 | 0.00 | 0.00 | 94 | 1012.7 |
| 20260505100934 | 44 | 76 | 0.0 | 0.0 | 0.00 | 0.00 | 0.00 | 94 | 1012.7 |
| 20260505100813 | 44 | 76 | 0.0 | 0.0 | 0.00 | 0.00 | 0.00 | 94 | 1012.6 |
| 20260505100726 | 44 | 76 | 0.0 | 0.0 | 0.00 | 0.00 | 0.00 | 94 | 1012.6 |
| 20260505100612 | 44 | 76 | 0.0 | 0.0 | 0.00 | 0.00 | 0.00 | 94 | 1012.5 |
| 20260505100518 | 44 | 76 | 0.0 | 0.0 | 0.00 | 0.00 | 0.00 | 94 | 1012.5 |
| 20260505100428 | 44 | 76 | 0.0 | 0.0 | 0.00 | 0.00 | 0.00 | 94 | 1012.5 |
| 20260505100341 | 44 | 76 | 0.0 | 0.0 | 0.00 | 0.00 | 0.00 | 94 | 1012.6 |
| 20260505100226 | 44 | 76 | 0.0 | 0.0 | 0.00 | 0.00 | 0.00 | 94 | 1012.6 |
| 20260505100112 | 44 | 76 | 0.0 | 0.0 | 0.00 | 0.00 | 0.00 | 94 | 1012.6 |
| 20260505100047 | 43 | 76 | 0.0 | 0.0 | 0.00 | 0.00 | 0.00 | 94 | 1012.3 |
| 20260505100037 | 44 | 76 | 0.0 | 0.0 | 0.00 | 0.00 | 0.00 | 94 | 1012.6 |
| 20260505095929 | 44 | 76 | 0.0 | 0.0 | 0.00 | 0.00 | 0.00 | 94 | 1012.6 |
| 20260505095835 | 44 | 76 | 0.0 | 0.0 | 0.00 | 0.00 | 0.00 | 94 | 1012.6 |
| 20260505095724 | 44 | 76 | 0.0 | 0.0 | 0.00 | 0.00 | 0.00 | 94 | 1012.6 |
| 20260505095609 | 44 | 76 | 0.0 | 0.0 | 0.00 | 0.00 | 0.00 | 94 | 1012.6 |
| 20260505095522 | 44 | 76 | 0.0 | 0.0 | 0.00 | 0.00 | 0.00 | 94 | 1012.6 |
| 20260505095428 | 44 | 76 | 0.0 | 0.0 | 0.00 | 0.00 | 0.00 | 94 | 1012.6 |
| 20260505095314 | 44 | 76 | 0.0 | 0.0 | 0.00 | 0.00 | 0.00 | 94 | 1012.6 |
| 20260505095225 | 44 | 76 | 0.0 | 0.0 | 0.00 | 0.00 | 0.00 | 94 | 1012.6 |
| 20260505095138 | 44 | 76 | 0.0 | 0.0 | 0.00 | 0.00 | 0.00 | 94 | 1012.6 |
| 20260505095009 | 44 | 76 | 0.0 | 0.0 | 0.00 | 0.00 | 0.00 | 94 | 1012.6 |
| 20260505094923 | 43 | 76 | 0.0 | 0.0 | 0.00 | 0.00 | 0.00 | 94 | 1012.6 |
| 20260505094828 | 43 | 76 | 0.0 | 0.0 | 0.00 | 0.00 | 0.00 | 94 | 1012.7 |
| 20260505094714 | 43 | 76 | 0.0 | 0.0 | 0.00 | 0.00 | 0.00 | 93 | 1012.7 |
| 20260505094625 | 44 | 76 | 0.0 | 0.0 | 0.00 | 0.00 | 0.00 | 94 | 1012.7 |
| 20260505094532 | 43 | 76 | 0.0 | 0.0 | 0.00 | 0.00 | 0.00 | 94 | 1012.5 |
| 20260505094510 | 44 | 76 | 0.0 | 0.0 | 0.00 | 0.00 | 0.00 | 94 | 1012.7 |
| 20260505094424 | 44 | 76 | 0.0 | 0.0 | 0.00 | 0.00 | 0.00 | 93 | 1012.7 |
| 20260505094349 | 44 | 76 | 0.0 | 0.0 | 0.00 | 0.00 | 0.00 | 93 | 1012.7 |
| 20260505094214 | 44 | 76 | 0.0 | 0.0 | 0.00 | 0.00 | 0.00 | 93 | 1012.7 |
| 20260505094120 | 44 | 76 | 0.0 | 0.0 | 0.00 | 0.00 | 0.00 | 93 | 1012.7 |
| 20260505094010 | 44 | 76 | 0.0 | 0.0 | 0.00 | 0.00 | 0.00 | 93 | 1012.7 |
| 20260505093923 | 44 | 76 | 0.0 | 0.0 | 0.00 | 0.00 | 0.00 | 93 | 1012.7 |
| 20260505093829 | 44 | 76 | 0.0 | 0.0 | 0.00 | 0.00 | 0.00 | 93 | 1012.6 |
| 20260505093721 | 44 | 76 | 0.0 | 0.0 | 0.00 | 0.00 | 0.00 | 93 | 1012.7 |
| 20260505093631 | 44 | 76 | 0.0 | 0.0 | 0.00 | 0.00 | 0.00 | 93 | 1012.7 |
| 20260505093521 | 44 | 76 | 0.0 | 0.0 | 0.00 | 0.00 | 0.00 | 93 | 1012.7 |
| 20260505093426 | 44 | 76 | 0.0 | 0.0 | 0.00 | 0.00 | 0.00 | 93 | 1012.6 |
| 20260505093312 | 44 | 76 | 0.0 | 0.0 | 0.00 | 0.00 | 0.00 | 93 | 1012.7 |
| 20260505093228 | 44 | 76 | 0.0 | 0.0 | 0.00 | 0.00 | 0.00 | 94 | 1012.7 |
| 20260505093138 | 44 | 76 | 0.0 | 0.0 | 0.00 | 0.00 | 0.00 | 94 | 1012.8 |
| 20260505093056 | 43 | 76 | 0.0 | 0.0 | 0.00 | 0.00 | 0.00 | 94 | 1012.5 |
| 20260505093018 | 44 | 76 | 0.0 | 0.0 | 0.00 | 0.00 | 0.00 | 94 | 1012.8 |
| 20260505092951 | 44 | 76 | 0.0 | 0.0 | 0.00 | 0.00 | 0.00 | 93 | 1012.7 |
| 20260505092820 | 44 | 76 | 0.0 | 0.0 | 0.00 | 0.00 | 0.00 | 94 | 1012.7 |
| 20260505092726 | 44 | 76 | 0.0 | 0.0 | 0.00 | 0.00 | 0.00 | 94 | 1012.7 |
| 20260505092612 | 44 | 76 | 0.0 | 0.0 | 0.00 | 0.00 | 0.00 | 93 | 1012.7 |
| 20260505092545 | 44 | 76 | 0.0 | 0.0 | 0.00 | 0.00 | 0.00 | 93 | 1012.7 |
| 20260505092413 | 44 | 76 | 0.0 | 0.0 | 0.00 | 0.00 | 0.00 | 93 | 1012.7 |
| 20260505092326 | 44 | 76 | 0.0 | 0.0 | 0.00 | 0.00 | 0.00 | 93 | 1012.7 |
| 20260505092215 | 44 | 76 | 0.0 | 0.0 | 0.00 | 0.00 | 0.00 | 93 | 1012.7 |
| 20260505092121 | 44 | 76 | 0.0 | 0.0 | 0.00 | 0.00 | 0.00 | 93 | 1012.7 |
| 20260505092027 | 44 | 76 | 0.0 | 0.0 | 0.00 | 0.00 | 0.00 | 93 | 1012.7 |
| 20260505091913 | 44 | 76 | 0.0 | 0.0 | 0.00 | 0.00 | 0.00 | 93 | 1012.7 |
| 20260505091826 | 44 | 76 | 0.0 | 0.0 | 0.00 | 0.00 | 0.00 | 93 | 1012.7 |
| 20260505091726 | 44 | 76 | 0.0 | 0.0 | 0.00 | 0.00 | 0.00 | 93 | 1012.7 |
| 20260505091612 | 44 | 76 | 0.0 | 0.0 | 0.00 | 0.00 | 0.00 | 93 | 1012.7 |
| 20260505091543 | 43 | 76 | 0.0 | 0.0 | 0.00 | 0.00 | 0.00 | 93 | 1012.5 |
| 20260505091515 | 44 | 76 | 0.0 | 0.0 | 0.00 | 0.00 | 0.00 | 93 | 1012.7 |
| 20260505091421 | 44 | 76 | 0.0 | 0.0 | 0.00 | 0.00 | 0.00 | 93 | 1012.7 |
| 20260505091334 | 44 | 76 | 0.0 | 0.0 | 0.00 | 0.00 | 0.00 | 93 | 1012.6 |
| 20260505091239 | 44 | 76 | 0.0 | 0.0 | 0.00 | 0.00 | 0.00 | 93 | 1012.6 |
| 20260505091131 | 44 | 76 | 0.0 | 0.0 | 0.00 | 0.00 | 0.00 | 93 | 1012.6 |
| 20260505091021 | 44 | 76 | 0.0 | 0.0 | 0.00 | 0.00 | 0.00 | 93 | 1012.6 |
| 20260505090927 | 44 | 76 | 0.0 | 0.0 | 0.00 | 0.00 | 0.00 | 93 | 1012.6 |
| 20260505090813 | 44 | 76 | 0.0 | 0.0 | 0.00 | 0.00 | 0.00 | 93 | 1012.6 |
| 20260505090719 | 44 | 76 | 0.0 | 0.0 | 0.00 | 0.00 | 0.00 | 93 | 1012.6 |
| 20260505090652 | 44 | 76 | 0.0 | 0.0 | 0.00 | 0.00 | 0.00 | 93 | 1012.6 |
| 20260505090521 | 44 | 76 | 0.0 | 0.0 | 0.00 | 0.00 | 0.00 | 93 | 1012.6 |
| 20260505090427 | 44 | 76 | 0.0 | 0.0 | 0.00 | 0.00 | 0.00 | 93 | 1012.6 |
| 20260505090313 | 44 | 76 | 0.0 | 0.0 | 0.00 | 0.00 | 0.00 | 93 | 1012.6 |
| 20260505090219 | 44 | 76 | 0.0 | 0.0 | 0.00 | 0.00 | 0.00 | 93 | 1012.6 |
| 20260505090132 | 44 | 76 | 0.0 | 0.0 | 0.00 | 0.00 | 0.00 | 93 | 1012.6 |
| 20260505090018 | 44 | 76 | 0.0 | 0.0 | 0.00 | 0.00 | 0.00 | 93 | 1012.6 |
| 20260505090013 | 44 | 76 | 0.0 | 0.0 | 0.00 | 0.00 | 0.00 | 93 | 1012.4 |
| 20260505085928 | 44 | 76 | 0.0 | 0.0 | 0.00 | 0.00 | 0.00 | 93 | 1012.6 |
| 20260505085834 | 44 | 76 | 0.0 | 0.0 | 0.00 | 0.00 | 0.00 | 93 | 1012.6 |
| 20260505085726 | 44 | 76 | 0.0 | 0.0 | 0.00 | 0.00 | 0.00 | 93 | 1012.6 |
| 20260505085632 | 44 | 76 | 0.0 | 0.0 | 0.00 | 0.00 | 0.00 | 93 | 1012.6 |
| 20260505085518 | 44 | 76 | 0.0 | 0.0 | 0.00 | 0.00 | 0.00 | 93 | 1012.6 |
| 20260505085444 | 44 | 76 | 0.0 | 0.0 | 0.00 | 0.00 | 0.00 | 93 | 1012.5 |
| 20260505085313 | 44 | 76 | 0.0 | 0.0 | 0.00 | 0.00 | 0.00 | 93 | 1012.5 |
| 20260505085227 | 44 | 76 | 0.0 | 0.0 | 0.00 | 0.00 | 0.00 | 93 | 1012.5 |
| 20260505085113 | 44 | 76 | 0.0 | 0.0 | 0.00 | 0.00 | 0.00 | 93 | 1012.6 |
| 20260505085019 | 44 | 76 | 0.0 | 0.0 | 0.00 | 0.00 | 0.00 | 93 | 1012.6 |
| 20260505084924 | 44 | 76 | 0.0 | 0.0 | 0.00 | 0.00 | 0.00 | 93 | 1012.5 |
| 20260505084815 | 44 | 76 | 0.0 | 0.0 | 0.00 | 0.00 | 0.00 | 93 | 1012.5 |
| 20260505084721 | 44 | 76 | 0.0 | 0.0 | 0.00 | 0.00 | 0.00 | 93 | 1012.5 |
| 20260505084634 | 44 | 76 | 0.0 | 0.0 | 0.00 | 0.00 | 0.00 | 93 | 1012.5 |
| 20260505084612 | 44 | 76 | 0.0 | 0.0 | 0.00 | 0.00 | 0.00 | 93 | 1012.2 |
| 20260505084540 | 44 | 76 | 0.0 | 0.0 | 0.00 | 0.00 | 0.00 | 93 | 1012.4 |
| 20260505084425 | 44 | 76 | 0.0 | 0.0 | 0.00 | 0.00 | 0.00 | 93 | 1012.4 |
| 20260505084311 | 44 | 76 | 0.0 | 0.0 | 0.00 | 0.00 | 0.00 | 93 | 1012.3 |
| 20260505084227 | 44 | 76 | 0.0 | 0.0 | 0.00 | 0.00 | 0.00 | 93 | 1012.3 |
| 20260505084134 | 44 | 76 | 0.0 | 0.0 | 0.00 | 0.00 | 0.00 | 93 | 1012.3 |
| 20260505084018 | 44 | 76 | 0.0 | 0.0 | 0.00 | 0.00 | 0.00 | 93 | 1012.3 |
| 20260505083932 | 44 | 76 | 0.0 | 0.0 | 0.00 | 0.00 | 0.00 | 93 | 1012.3 |
| 20260505083817 | 44 | 76 | 0.0 | 0.0 | 0.00 | 0.00 | 0.00 | 93 | 1012.3 |
| 20260505083722 | 44 | 76 | 0.0 | 0.0 | 0.00 | 0.00 | 0.00 | 93 | 1012.3 |
| 20260505083612 | 44 | 76 | 0.0 | 0.0 | 0.00 | 0.00 | 0.00 | 93 | 1012.3 |
| 20260505083518 | 44 | 76 | 0.0 | 0.0 | 0.00 | 0.00 | 0.00 | 93 | 1012.3 |
| 20260505083431 | 44 | 76 | 0.0 | 0.0 | 0.00 | 0.00 | 0.00 | 93 | 1012.3 |
| 20260505083317 | 44 | 76 | 0.0 | 0.0 | 0.00 | 0.00 | 0.00 | 93 | 1012.2 |
| 20260505083243 | 45 | 76 | 0.0 | 0.0 | 0.00 | 0.00 | 0.00 | 93 | 1012.3 |
| 20260505083135 | 45 | 76 | 0.0 | 0.0 | 0.00 | 0.00 | 0.00 | 93 | 1012.3 |
| 20260505083025 | 45 | 76 | 0.0 | 0.0 | 0.00 | 0.00 | 0.00 | 93 | 1012.3 |
| 20260505083016 | 44 | 76 | 0.0 | 0.0 | 0.00 | 0.00 | 0.00 | 93 | 1012.0 |
| 20260505082912 | 45 | 76 | 0.0 | 0.0 | 0.00 | 0.00 | 0.00 | 93 | 1012.3 |
| 20260505082817 | 45 | 76 | 0.0 | 0.0 | 0.00 | 0.00 | 0.00 | 93 | 1012.3 |
| 20260505082723 | 45 | 76 | 0.0 | 0.0 | 0.00 | 0.00 | 0.00 | 93 | 1012.2 |
| 20260505082656 | 45 | 76 | 0.0 | 0.0 | 0.00 | 0.00 | 0.00 | 93 | 1012.2 |
| 20260505082541 | 45 | 76 | 0.0 | 0.0 | 0.00 | 0.00 | 0.00 | 93 | 1012.2 |
| 20260505082410 | 45 | 76 | 0.0 | 0.0 | 0.00 | 0.00 | 0.00 | 93 | 1012.2 |
| 20260505082316 | 45 | 76 | 0.0 | 0.0 | 0.00 | 0.00 | 0.00 | 93 | 1012.2 |
| 20260505082229 | 45 | 76 | 0.0 | 0.0 | 0.00 | 0.00 | 0.00 | 93 | 1012.2 |
| 20260505082115 | 45 | 76 | 0.0 | 0.0 | 0.00 | 0.00 | 0.00 | 93 | 1012.2 |
| 20260505082041 | 45 | 76 | 0.0 | 0.0 | 0.00 | 0.00 | 0.00 | 93 | 1012.2 |
| 20260505081926 | 45 | 76 | 0.0 | 0.0 | 0.00 | 0.00 | 0.00 | 93 | 1012.2 |
| 20260505081816 | 45 | 76 | 0.0 | 0.0 | 0.00 | 0.00 | 0.00 | 93 | 1012.2 |
| 20260505081729 | 45 | 76 | 0.0 | 0.0 | 0.00 | 0.00 | 0.00 | 93 | 1012.2 |
| 20260505081615 | 45 | 76 | 0.0 | 0.0 | 0.00 | 0.00 | 0.00 | 93 | 1012.2 |
| 20260505081604 | 44 | 76 | 0.0 | 0.0 | 0.00 | 0.00 | 0.00 | 93 | 1011.9 |
| 20260505081521 | 45 | 76 | 0.0 | 0.0 | 0.00 | 0.00 | 0.00 | 93 | 1012.2 |
| 20260505081427 | 45 | 76 | 0.0 | 0.0 | 0.00 | 0.00 | 0.00 | 93 | 1012.2 |
| 20260505081313 | 45 | 76 | 0.0 | 0.0 | 0.00 | 0.00 | 0.00 | 93 | 1012.1 |
| 20260505081230 | 45 | 76 | 0.0 | 0.0 | 0.00 | 0.00 | 0.00 | 93 | 1012.2 |
| 20260505081115 | 45 | 76 | 0.0 | 0.0 | 0.00 | 0.00 | 0.00 | 93 | 1012.2 |
| 20260505081021 | 45 | 76 | 0.0 | 0.0 | 0.00 | 0.00 | 0.00 | 93 | 1012.2 |
| 20260505080927 | 45 | 76 | 0.0 | 0.0 | 0.00 | 0.00 | 0.00 | 93 | 1012.2 |
| 20260505080813 | 45 | 76 | 0.0 | 0.0 | 0.00 | 0.00 | 0.00 | 93 | 1012.2 |
| 20260505080725 | 45 | 76 | 0.0 | 0.0 | 0.00 | 0.00 | 0.00 | 93 | 1012.2 |
| 20260505080616 | 45 | 76 | 0.0 | 0.0 | 0.00 | 0.00 | 0.00 | 93 | 1012.2 |
| 20260505080521 | 45 | 76 | 0.0 | 0.0 | 0.00 | 0.00 | 0.00 | 93 | 1012.2 |
| 20260505080428 | 45 | 76 | 0.0 | 0.0 | 0.00 | 0.00 | 0.00 | 93 | 1012.1 |
| 20260505080314 | 45 | 76 | 0.0 | 0.0 | 0.00 | 0.00 | 0.00 | 93 | 1012.2 |
| 20260505080219 | 45 | 76 | 0.0 | 0.0 | 0.00 | 0.00 | 0.00 | 93 | 1012.2 |
| 20260505080109 | 45 | 76 | 0.0 | 0.0 | 0.00 | 0.00 | 0.00 | 93 | 1012.2 |
| 20260505080022 | 45 | 76 | 0.0 | 0.0 | 0.00 | 0.00 | 0.00 | 93 | 1012.2 |
| 20260505080002 | 45 | 76 | 0.0 | 0.0 | 0.00 | 0.00 | 0.00 | 93 | 1011.9 |
| 20260505075928 | 45 | 76 | 0.0 | 0.0 | 0.00 | 0.00 | 0.00 | 93 | 1012.2 |
| 20260505075814 | 45 | 76 | 0.0 | 0.0 | 0.00 | 0.00 | 0.00 | 93 | 1012.1 |
| 20260505075720 | 45 | 76 | 0.0 | 0.0 | 0.00 | 0.00 | 0.00 | 93 | 1012.1 |
| 20260505075610 | 45 | 76 | 0.0 | 0.0 | 0.00 | 0.00 | 0.00 | 93 | 1012.1 |
| 20260505075523 | 45 | 76 | 0.0 | 0.0 | 0.00 | 0.00 | 0.00 | 93 | 1012.1 |
| 20260505075410 | 45 | 76 | 0.0 | 0.0 | 0.00 | 0.00 | 0.00 | 93 | 1012.0 |
| 20260505075315 | 45 | 76 | 0.0 | 0.0 | 0.00 | 0.00 | 0.00 | 93 | 1011.9 |
| 20260505075221 | 45 | 76 | 0.0 | 0.0 | 0.00 | 0.00 | 0.00 | 93 | 1011.9 |
| 20260505075154 | 45 | 76 | 0.0 | 0.0 | 0.00 | 0.00 | 0.00 | 93 | 1012.0 |
| 20260505075020 | 45 | 76 | 0.0 | 0.0 | 0.00 | 0.00 | 0.00 | 93 | 1011.9 |
| 20260505074926 | 45 | 76 | 0.0 | 0.0 | 0.00 | 0.00 | 0.00 | 93 | 1011.9 |
| 20260505074812 | 45 | 76 | 0.0 | 0.0 | 0.00 | 0.00 | 0.00 | 93 | 1011.9 |
| 20260505074718 | 45 | 76 | 0.0 | 0.0 | 0.00 | 0.00 | 0.00 | 93 | 1011.9 |
| 20260505074631 | 45 | 76 | 0.0 | 0.0 | 0.00 | 0.00 | 0.00 | 93 | 1012.0 |
| 20260505074520 | 45 | 76 | 0.0 | 0.0 | 0.00 | 0.00 | 0.00 | 93 | 1011.7 |
| 20260505074510 | 45 | 76 | 0.0 | 0.0 | 0.00 | 0.00 | 0.00 | 93 | 1011.9 |
| 20260505074447 | 45 | 76 | 0.0 | 0.0 | 0.00 | 0.00 | 0.00 | 93 | 1011.9 |
| 20260505074332 | 45 | 76 | 0.0 | 0.0 | 0.00 | 0.00 | 0.00 | 93 | 1011.9 |
| 20260505074224 | 45 | 76 | 0.0 | 0.0 | 0.00 | 0.00 | 0.00 | 93 | 1011.9 |
| 20260505074110 | 45 | 76 | 0.0 | 0.0 | 0.00 | 0.00 | 0.00 | 93 | 1011.9 |
| 20260505074016 | 45 | 76 | 0.0 | 0.0 | 0.00 | 0.00 | 0.00 | 93 | 1012.0 |
| 20260505073922 | 45 | 76 | 0.0 | 0.0 | 0.00 | 0.00 | 0.00 | 92 | 1012.0 |
| 20260505073839 | 45 | 76 | 0.0 | 0.0 | 0.00 | 0.00 | 0.00 | 93 | 1012.0 |
| 20260505073724 | 45 | 76 | 0.0 | 0.0 | 0.00 | 0.00 | 0.00 | 93 | 1012.0 |
| 20260505073610 | 45 | 76 | 0.0 | 0.0 | 0.00 | 0.00 | 0.00 | 93 | 1012.0 |
| 20260505073543 | 45 | 76 | 0.0 | 0.0 | 0.00 | 0.00 | 0.00 | 93 | 1012.0 |
| 20260505073428 | 46 | 76 | 0.0 | 0.0 | 0.00 | 0.00 | 0.00 | 93 | 1011.9 |
| 20260505073314 | 46 | 76 | 0.0 | 0.0 | 0.00 | 0.00 | 0.00 | 93 | 1012.0 |
| 20260505073224 | 46 | 76 | 0.0 | 0.0 | 0.00 | 0.00 | 0.00 | 93 | 1012.0 |
| 20260505073110 | 46 | 76 | 0.0 | 0.0 | 0.00 | 0.00 | 0.00 | 93 | 1011.9 |
| 20260505073046 | 45 | 76 | 0.0 | 0.0 | 0.00 | 0.00 | 0.00 | 93 | 1011.7 |
| 20260505073016 | 46 | 76 | 0.0 | 0.0 | 0.00 | 0.00 | 0.00 | 93 | 1011.9 |
| 20260505072929 | 46 | 76 | 0.0 | 0.0 | 0.00 | 0.00 | 0.00 | 93 | 1011.9 |
| 20260505072815 | 46 | 76 | 0.0 | 0.0 | 0.00 | 0.00 | 0.00 | 93 | 1011.9 |
| 20260505072721 | 46 | 76 | 0.0 | 0.0 | 0.00 | 0.00 | 0.00 | 93 | 1011.9 |
| 20260505072611 | 46 | 76 | 0.0 | 0.0 | 0.00 | 0.00 | 0.00 | 93 | 1011.8 |
| 20260505072517 | 46 | 76 | 0.0 | 0.0 | 0.00 | 0.00 | 0.00 | 93 | 1011.9 |
| 20260505072423 | 46 | 76 | 0.0 | 0.0 | 0.00 | 0.00 | 0.00 | 93 | 1011.9 |
| 20260505072336 | 46 | 76 | 0.0 | 0.0 | 0.00 | 0.00 | 0.00 | 93 | 1011.9 |
| 20260505072221 | 46 | 76 | 0.0 | 0.0 | 0.00 | 0.00 | 0.00 | 93 | 1011.9 |
| 20260505072111 | 46 | 76 | 0.0 | 0.0 | 0.00 | 0.00 | 0.00 | 93 | 1011.8 |
| 20260505072018 | 46 | 76 | 0.0 | 0.0 | 0.00 | 0.00 | 0.00 | 93 | 1011.8 |
| 20260505071923 | 46 | 76 | 0.0 | 0.0 | 0.00 | 0.00 | 0.00 | 93 | 1011.8 |
| 20260505071810 | 46 | 76 | 0.0 | 0.0 | 0.00 | 0.00 | 0.00 | 93 | 1011.8 |
| 20260505071716 | 46 | 76 | 0.0 | 0.0 | 0.00 | 0.00 | 0.00 | 93 | 1011.8 |
| 20260505071648 | 46 | 76 | 0.0 | 0.0 | 0.00 | 0.00 | 0.00 | 93 | 1011.8 |
| 20260505071553 | 45 | 76 | 0.0 | 0.0 | 0.00 | 0.00 | 0.00 | 93 | 1011.5 |
| 20260505071518 | 46 | 76 | 0.0 | 0.0 | 0.00 | 0.00 | 0.00 | 93 | 1011.8 |
| 20260505071448 | 46 | 76 | 0.0 | 0.0 | 0.00 | 0.00 | 0.00 | 93 | 1011.8 |
| 20260505071333 | 46 | 76 | 0.0 | 0.0 | 0.00 | 0.00 | 0.00 | 93 | 1011.8 |
| 20260505071219 | 46 | 76 | 0.0 | 0.0 | 0.00 | 0.00 | 0.00 | 93 | 1011.8 |
| 20260505071132 | 46 | 76 | 0.0 | 0.0 | 0.00 | 0.00 | 0.00 | 93 | 1011.8 |
| 20260505071018 | 46 | 76 | 0.0 | 0.0 | 0.00 | 0.00 | 0.00 | 92 | 1011.8 |
| 20260505070928 | 46 | 76 | 0.0 | 0.0 | 0.00 | 0.00 | 0.00 | 92 | 1011.8 |
| 20260505070814 | 46 | 76 | 0.0 | 0.0 | 0.00 | 0.00 | 0.00 | 92 | 1011.7 |
| 20260505070740 | 46 | 76 | 0.0 | 0.0 | 0.00 | 0.00 | 0.00 | 93 | 1011.7 |
| 20260505070632 | 46 | 76 | 0.0 | 0.0 | 0.00 | 0.00 | 0.00 | 93 | 1011.6 |
| 20260505070518 | 46 | 76 | 0.0 | 0.0 | 0.00 | 0.00 | 0.00 | 93 | 1011.7 |
| 20260505070424 | 46 | 76 | 0.0 | 0.0 | 0.00 | 0.00 | 0.00 | 93 | 1011.7 |
| 20260505070314 | 46 | 76 | 0.0 | 0.0 | 0.00 | 0.00 | 0.00 | 93 | 1011.8 |
| 20260505070220 | 46 | 76 | 0.0 | 0.0 | 0.00 | 0.00 | 0.00 | 93 | 1011.8 |
| 20260505070133 | 46 | 76 | 0.0 | 0.0 | 0.00 | 0.00 | 0.00 | 93 | 1011.7 |
| 20260505070104 | 46 | 76 | 0.0 | 0.0 | 0.00 | 0.00 | 0.00 | 93 | 1011.5 |
| 20260505070018 | 46 | 76 | 0.0 | 0.0 | 0.00 | 0.00 | 0.00 | 93 | 1011.7 |
| 20260505065924 | 46 | 76 | 0.0 | 0.0 | 0.00 | 0.00 | 0.00 | 93 | 1011.8 |
| 20260505065810 | 46 | 76 | 0.0 | 0.0 | 0.00 | 0.00 | 0.00 | 93 | 1011.8 |
| 20260505065720 | 46 | 76 | 0.0 | 0.0 | 0.00 | 0.00 | 0.00 | 93 | 1011.8 |
| 20260505065633 | 46 | 76 | 0.0 | 0.0 | 0.00 | 0.00 | 0.00 | 93 | 1011.8 |
| 20260505065519 | 46 | 76 | 0.0 | 0.0 | 0.00 | 0.00 | 0.00 | 93 | 1011.7 |
| 20260505065425 | 46 | 76 | 0.0 | 0.0 | 0.00 | 0.00 | 0.00 | 93 | 1011.8 |
| 20260505065311 | 46 | 76 | 0.0 | 0.0 | 0.00 | 0.00 | 0.00 | 93 | 1011.8 |
| 20260505065221 | 46 | 76 | 0.0 | 0.0 | 0.00 | 0.00 | 0.00 | 93 | 1011.8 |
| 20260505065113 | 46 | 76 | 0.0 | 0.0 | 0.00 | 0.00 | 0.00 | 93 | 1011.8 |
| 20260505065019 | 46 | 76 | 0.0 | 0.0 | 0.00 | 0.00 | 0.00 | 93 | 1011.8 |
| 20260505064925 | 46 | 76 | 0.0 | 0.0 | 0.00 | 0.00 | 0.00 | 93 | 1011.8 |
| 20260505064811 | 46 | 76 | 0.0 | 0.0 | 0.00 | 0.00 | 0.00 | 93 | 1011.7 |
| 20260505064717 | 46 | 76 | 0.0 | 0.0 | 0.00 | 0.00 | 0.00 | 92 | 1011.7 |
| 20260505064634 | 46 | 76 | 0.0 | 0.0 | 0.00 | 0.00 | 0.00 | 92 | 1011.7 |
| 20260505064520 | 46 | 76 | 0.0 | 0.0 | 0.00 | 0.00 | 0.00 | 92 | 1011.6 |
| 20260505064508 | 46 | 76 | 0.0 | 0.0 | 0.00 | 0.00 | 0.00 | 92 | 1011.3 |
| 20260505064423 | 46 | 76 | 0.0 | 0.0 | 0.00 | 0.00 | 0.00 | 92 | 1011.6 |
| 20260505064329 | 46 | 76 | 0.0 | 0.0 | 0.00 | 0.00 | 0.00 | 92 | 1011.7 |
| 20260505064214 | 46 | 76 | 0.0 | 0.0 | 0.00 | 0.00 | 0.00 | 92 | 1011.7 |
| 20260505064147 | 46 | 76 | 0.0 | 0.0 | 0.00 | 0.00 | 0.00 | 92 | 1011.7 |
| 20260505064026 | 46 | 76 | 0.0 | 0.0 | 0.00 | 0.00 | 0.00 | 92 | 1011.7 |
| 20260505063912 | 46 | 76 | 0.0 | 0.0 | 0.00 | 0.00 | 0.00 | 92 | 1011.7 |
| 20260505063818 | 46 | 76 | 0.0 | 0.0 | 0.00 | 0.00 | 0.00 | 92 | 1011.7 |
| 20260505063731 | 46 | 76 | 0.0 | 0.0 | 0.00 | 0.00 | 0.00 | 92 | 1011.7 |
| 20260505063617 | 46 | 76 | 0.0 | 0.0 | 0.00 | 0.00 | 0.00 | 92 | 1011.6 |
| 20260505063523 | 46 | 76 | 0.0 | 0.0 | 0.00 | 0.00 | 0.00 | 92 | 1011.6 |
| 20260505063433 | 47 | 76 | 0.0 | 0.0 | 0.00 | 0.00 | 0.00 | 92 | 1011.6 |
| 20260505063325 | 47 | 76 | 0.0 | 0.0 | 0.00 | 0.00 | 0.00 | 92 | 1011.6 |
| 20260505063231 | 47 | 76 | 0.0 | 0.0 | 0.00 | 0.00 | 0.00 | 92 | 1011.7 |
| 20260505063117 | 47 | 76 | 0.0 | 0.0 | 0.00 | 0.00 | 0.00 | 92 | 1011.7 |
| 20260505063056 | 46 | 76 | 0.0 | 0.0 | 0.00 | 0.00 | 0.00 | 92 | 1011.4 |
| 20260505063018 | 47 | 76 | 0.0 | 0.0 | 0.00 | 0.00 | 0.00 | 92 | 1011.7 |
| 20260505062948 | 47 | 76 | 0.0 | 0.0 | 0.00 | 0.00 | 0.00 | 92 | 1011.7 |
| 20260505062823 | 47 | 76 | 0.0 | 0.0 | 0.00 | 0.00 | 0.00 | 92 | 1011.7 |
| 20260505062729 | 47 | 76 | 0.0 | 0.0 | 0.00 | 0.00 | 0.00 | 92 | 1011.7 |
| 20260505062615 | 47 | 76 | 0.0 | 0.0 | 0.00 | 0.00 | 0.00 | 92 | 1011.7 |
| 20260505062525 | 47 | 76 | 0.0 | 0.0 | 0.00 | 0.00 | 0.00 | 92 | 1011.7 |
| 20260505062431 | 47 | 76 | 0.0 | 0.0 | 0.00 | 0.00 | 0.00 | 92 | 1011.6 |
| 20260505062404 | 47 | 76 | 0.0 | 0.0 | 0.00 | 0.00 | 0.00 | 92 | 1011.6 |
| 20260505062225 | 47 | 76 | 0.0 | 0.0 | 0.00 | 0.00 | 0.00 | 92 | 1011.6 |
| 20260505062115 | 47 | 76 | 0.0 | 0.0 | 0.00 | 0.00 | 0.00 | 92 | 1011.6 |
| 20260505062020 | 47 | 76 | 0.0 | 0.0 | 0.00 | 0.00 | 0.00 | 92 | 1011.6 |
| 20260505061927 | 47 | 76 | 0.0 | 0.0 | 0.00 | 0.00 | 0.00 | 92 | 1011.6 |
| 20260505061812 | 47 | 76 | 0.0 | 0.0 | 0.00 | 0.00 | 0.00 | 92 | 1011.6 |
| 20260505061725 | 47 | 76 | 0.0 | 0.0 | 0.00 | 0.00 | 0.00 | 92 | 1011.6 |
| 20260505061615 | 47 | 76 | 0.0 | 0.0 | 0.00 | 0.00 | 0.00 | 92 | 1011.4 |
| 20260505061612 | 46 | 76 | 0.0 | 0.0 | 0.00 | 0.00 | 0.00 | 92 | 1011.2 |
| 20260505061541 | 47 | 76 | 0.0 | 0.0 | 0.00 | 0.00 | 0.00 | 92 | 1011.4 |
| 20260505061433 | 47 | 76 | 0.0 | 0.0 | 0.00 | 0.00 | 0.00 | 92 | 1011.5 |
| 20260505061341 | 47 | 76 | 0.0 | 0.0 | 0.00 | 0.00 | 0.00 | 92 | 1011.4 |
| 20260505061226 | 47 | 76 | 0.0 | 0.0 | 0.00 | 0.00 | 0.00 | 92 | 1011.4 |
| 20260505061112 | 47 | 76 | 0.0 | 0.0 | 0.00 | 0.00 | 0.00 | 92 | 1011.4 |
| 20260505061022 | 47 | 76 | 0.0 | 0.0 | 0.00 | 0.00 | 0.00 | 92 | 1011.4 |
| 20260505060935 | 47 | 76 | 0.0 | 0.0 | 0.00 | 0.00 | 0.00 | 92 | 1011.5 |
| 20260505060821 | 47 | 76 | 0.0 | 0.0 | 0.00 | 0.00 | 0.00 | 92 | 1011.5 |
| 20260505060727 | 47 | 76 | 0.0 | 0.0 | 0.00 | 0.00 | 0.00 | 92 | 1011.4 |
| 20260505060613 | 47 | 76 | 0.0 | 0.0 | 0.00 | 0.00 | 0.00 | 92 | 1011.5 |
| 20260505060519 | 47 | 76 | 0.0 | 0.0 | 0.00 | 0.00 | 0.00 | 92 | 1011.5 |
| 20260505060409 | 47 | 76 | 0.0 | 0.0 | 0.00 | 0.00 | 0.00 | 92 | 1011.5 |
| 20260505060316 | 47 | 76 | 0.0 | 0.0 | 0.00 | 0.00 | 0.00 | 91 | 1011.5 |
| 20260505060228 | 47 | 76 | 0.0 | 0.0 | 0.00 | 0.00 | 0.00 | 91 | 1011.5 |
| 20260505060114 | 47 | 76 | 0.0 | 0.0 | 0.00 | 0.00 | 0.00 | 91 | 1011.5 |
| 20260505060020 | 47 | 76 | 0.0 | 0.0 | 0.00 | 0.00 | 0.00 | 92 | 1011.5 |
| 20260505055930 | 47 | 76 | 0.0 | 0.0 | 0.00 | 0.00 | 0.00 | 92 | 1011.5 |
| 20260505055822 | 47 | 76 | 0.0 | 0.0 | 0.00 | 0.00 | 0.00 | 92 | 1011.5 |
| 20260505055748 | 47 | 76 | 0.0 | 0.0 | 0.00 | 0.00 | 0.00 | 92 | 1011.6 |
| 20260505055640 | 47 | 76 | 0.0 | 0.0 | 0.00 | 0.00 | 0.00 | 92 | 1011.5 |
| 20260505055525 | 48 | 76 | 0.0 | 0.0 | 0.00 | 0.00 | 0.00 | 92 | 1011.4 |
| 20260505055412 | 48 | 76 | 0.0 | 0.0 | 0.00 | 0.00 | 0.00 | 92 | 1011.4 |
| 20260505055317 | 48 | 76 | 0.0 | 0.0 | 0.00 | 0.00 | 0.00 | 92 | 1011.4 |
| 20260505055227 | 48 | 76 | 0.0 | 0.0 | 0.00 | 0.00 | 0.00 | 92 | 1011.5 |
| 20260505055113 | 48 | 76 | 0.0 | 0.0 | 0.00 | 0.00 | 0.00 | 92 | 1011.4 |
| 20260505055026 | 48 | 76 | 0.0 | 0.0 | 0.00 | 0.00 | 0.00 | 92 | 1011.4 |
| 20260505054912 | 48 | 76 | 0.0 | 0.0 | 0.00 | 0.00 | 0.00 | 92 | 1011.4 |
| 20260505054818 | 48 | 76 | 0.0 | 0.0 | 0.00 | 0.00 | 0.00 | 92 | 1011.4 |
| 20260505054728 | 48 | 76 | 0.0 | 0.0 | 0.00 | 0.00 | 0.00 | 92 | 1011.4 |
| 20260505054614 | 48 | 76 | 0.0 | 0.0 | 0.00 | 0.00 | 0.00 | 92 | 1011.4 |
| 20260505054554 | 47 | 76 | 0.0 | 0.0 | 0.00 | 0.00 | 0.00 | 92 | 1011.1 |
| 20260505054520 | 48 | 76 | 0.0 | 0.0 | 0.00 | 0.00 | 0.00 | 92 | 1011.4 |
| 20260505054433 | 48 | 76 | 0.0 | 0.0 | 0.00 | 0.00 | 0.00 | 92 | 1011.4 |
| 20260505054318 | 48 | 76 | 0.0 | 0.0 | 0.00 | 0.00 | 0.00 | 92 | 1011.4 |
| 20260505054224 | 48 | 76 | 0.0 | 0.0 | 0.00 | 0.00 | 0.00 | 92 | 1011.4 |
| 20260505054114 | 48 | 76 | 0.0 | 0.0 | 0.00 | 0.00 | 0.00 | 92 | 1011.4 |
| 20260505054026 | 48 | 76 | 0.0 | 0.0 | 0.00 | 0.00 | 0.00 | 92 | 1011.4 |
| 20260505053913 | 48 | 76 | 0.0 | 0.0 | 0.00 | 0.00 | 0.00 | 92 | 1011.4 |
| 20260505053819 | 48 | 76 | 0.0 | 0.0 | 0.00 | 0.00 | 0.00 | 92 | 1011.4 |
| 20260505053725 | 48 | 76 | 0.0 | 0.0 | 0.00 | 0.00 | 0.00 | 92 | 1011.4 |
| 20260505053615 | 48 | 76 | 0.0 | 0.0 | 0.00 | 0.00 | 0.00 | 92 | 1011.4 |
| 20260505053548 | 48 | 76 | 0.0 | 0.0 | 0.00 | 0.00 | 0.00 | 92 | 1011.4 |
| 20260505053412 | 48 | 76 | 0.0 | 0.0 | 0.00 | 0.00 | 0.00 | 92 | 1011.4 |
| 20260505053318 | 48 | 76 | 0.0 | 0.0 | 0.00 | 0.00 | 0.00 | 91 | 1011.4 |
| 20260505053252 | 48 | 76 | 0.0 | 0.0 | 0.00 | 0.00 | 0.00 | 91 | 1011.4 |
| 20260505053116 | 48 | 76 | 0.0 | 0.0 | 0.00 | 0.00 | 0.00 | 91 | 1011.4 |
| 20260505053114 | 48 | 76 | 0.0 | 0.0 | 0.00 | 0.00 | 0.00 | 91 | 1011.1 |
| 20260505053043 | 48 | 76 | 0.0 | 0.0 | 0.00 | 0.00 | 0.00 | 91 | 1011.4 |
| 20260505052938 | 48 | 76 | 0.0 | 0.0 | 0.00 | 0.00 | 0.00 | 91 | 1011.4 |
| 20260505052823 | 48 | 76 | 0.0 | 0.0 | 0.00 | 0.00 | 0.00 | 91 | 1011.4 |
| 20260505052709 | 48 | 76 | 0.0 | 0.0 | 0.00 | 0.00 | 0.00 | 91 | 1011.4 |
| 20260505052615 | 48 | 76 | 0.0 | 0.0 | 0.00 | 0.00 | 0.00 | 91 | 1011.4 |
| 20260505052548 | 48 | 76 | 0.0 | 0.0 | 0.00 | 0.00 | 0.00 | 91 | 1011.4 |
| 20260505052413 | 48 | 76 | 0.0 | 0.0 | 0.00 | 0.00 | 0.00 | 91 | 1011.5 |
| 20260505052323 | 48 | 76 | 0.0 | 0.0 | 0.00 | 0.00 | 0.00 | 91 | 1011.5 |
| 20260505052209 | 48 | 76 | 0.0 | 0.0 | 0.00 | 0.00 | 0.00 | 91 | 1011.5 |
| 20260505052116 | 48 | 76 | 0.0 | 0.0 | 0.00 | 0.00 | 0.00 | 91 | 1011.5 |
| 20260505052028 | 48 | 76 | 0.0 | 0.0 | 0.00 | 0.00 | 0.00 | 91 | 1011.5 |
| 20260505051915 | 48 | 76 | 0.0 | 0.0 | 0.00 | 0.00 | 0.00 | 91 | 1011.4 |
| 20260505051820 | 48 | 76 | 0.0 | 0.0 | 0.00 | 0.00 | 0.00 | 91 | 1011.4 |
| 20260505051710 | 48 | 76 | 0.0 | 0.0 | 0.00 | 0.00 | 0.00 | 91 | 1011.5 |
| 20260505051636 | 48 | 76 | 0.0 | 0.0 | 0.00 | 0.00 | 0.00 | 91 | 1011.5 |
| 20260505051528 | 48 | 76 | 0.0 | 0.0 | 0.00 | 0.00 | 0.00 | 91 | 1011.5 |
| 20260505051508 | 48 | 76 | 0.0 | 0.0 | 0.00 | 0.00 | 0.00 | 91 | 1011.2 |
| 20260505051414 | 49 | 76 | 0.0 | 0.0 | 0.00 | 0.00 | 0.00 | 91 | 1011.5 |
| 20260505051320 | 49 | 76 | 0.0 | 0.0 | 0.00 | 0.00 | 0.00 | 91 | 1011.5 |
| 20260505051210 | 49 | 76 | 0.0 | 0.0 | 0.00 | 0.00 | 0.00 | 91 | 1011.5 |
| 20260505051116 | 49 | 76 | 0.0 | 0.0 | 0.00 | 0.00 | 0.00 | 91 | 1011.4 |
| 20260505051029 | 49 | 76 | 0.0 | 0.0 | 0.00 | 0.00 | 0.00 | 91 | 1011.4 |
| 20260505050935 | 49 | 76 | 0.0 | 0.0 | 0.00 | 0.00 | 0.00 | 91 | 1011.5 |
| 20260505050821 | 49 | 76 | 0.0 | 0.0 | 0.00 | 0.00 | 0.00 | 91 | 1011.5 |
| 20260505050727 | 49 | 76 | 0.0 | 0.0 | 0.00 | 0.00 | 0.00 | 90 | 1011.5 |
| 20260505050617 | 49 | 76 | 0.0 | 0.0 | 0.00 | 0.00 | 0.00 | 90 | 1011.5 |
| 20260505050523 | 49 | 76 | 0.0 | 0.0 | 0.00 | 0.00 | 0.00 | 90 | 1011.5 |
| 20260505050409 | 49 | 76 | 0.0 | 0.0 | 0.00 | 0.00 | 0.00 | 91 | 1011.5 |
| 20260505050322 | 49 | 76 | 0.0 | 0.0 | 0.00 | 0.00 | 0.00 | 91 | 1011.5 |
| 20260505050228 | 49 | 76 | 0.0 | 0.0 | 0.00 | 0.00 | 0.00 | 91 | 1011.5 |
| 20260505050118 | 49 | 76 | 0.0 | 0.0 | 0.00 | 0.00 | 0.00 | 91 | 1011.5 |
| 20260505041756 | 51 | 76 | 0.0 | 0.0 | 0.00 | 0.00 | 0.00 | 91 | 1011.4 |
| 20260505041621 | 51 | 76 | 0.0 | 0.0 | 0.00 | 0.00 | 0.00 | 91 | 1011.3 |
| 20260505041527 | 51 | 76 | 0.0 | 0.0 | 0.00 | 0.00 | 0.00 | 90 | 1011.4 |
| 20260505041506 | 50 | 76 | 0.0 | 0.0 | 0.00 | 0.00 | 0.00 | 90 | 1011.0 |
| 20260505041433 | 51 | 76 | 0.0 | 0.0 | 0.00 | 0.00 | 0.00 | 90 | 1011.3 |
| 20260505041322 | 51 | 76 | 0.0 | 0.0 | 0.00 | 0.00 | 0.00 | 90 | 1011.3 |
| 20260505041235 | 51 | 76 | 0.0 | 0.0 | 0.00 | 0.00 | 0.00 | 90 | 1011.4 |
| 20260505041141 | 51 | 76 | 0.0 | 0.0 | 0.00 | 0.00 | 0.00 | 90 | 1011.4 |
| 20260505041026 | 51 | 76 | 0.0 | 0.0 | 0.00 | 0.00 | 0.00 | 90 | 1011.3 |
| 20260505040912 | 51 | 76 | 0.0 | 0.0 | 0.00 | 0.00 | 0.00 | 90 | 1011.3 |
| 20260505040825 | 51 | 76 | 0.0 | 0.0 | 0.00 | 0.00 | 0.00 | 90 | 1011.3 |
| 20260505040715 | 51 | 76 | 0.0 | 0.0 | 0.00 | 0.00 | 0.00 | 90 | 1011.4 |
| 20260505040621 | 51 | 76 | 0.0 | 0.0 | 0.00 | 0.00 | 0.00 | 90 | 1011.4 |
| 20260505040527 | 51 | 76 | 0.0 | 0.0 | 0.00 | 0.00 | 0.00 | 90 | 1011.3 |
| 20260505040433 | 51 | 76 | 0.0 | 0.0 | 0.00 | 0.00 | 0.00 | 90 | 1011.3 |
| 20260505040325 | 51 | 76 | 0.0 | 0.0 | 0.00 | 0.00 | 0.00 | 90 | 1011.3 |
| 20260505040231 | 51 | 76 | 0.0 | 0.0 | 0.00 | 0.00 | 0.00 | 90 | 1011.3 |
| 20260505040134 | 51 | 76 | 0.0 | 0.0 | 0.00 | 0.00 | 0.00 | 90 | 1011.1 |
| 20260505040120 | 51 | 76 | 0.0 | 0.0 | 0.00 | 0.00 | 0.00 | 90 | 1011.3 |
| 20260505040033 | 51 | 76 | 0.0 | 0.0 | 0.00 | 0.00 | 0.00 | 90 | 1011.4 |
| 20260505035918 | 51 | 76 | 0.0 | 0.0 | 0.00 | 0.00 | 0.00 | 90 | 1011.4 |
| 20260505035824 | 51 | 76 | 0.0 | 0.0 | 0.00 | 0.00 | 0.00 | 90 | 1011.3 |
| 20260505035710 | 51 | 76 | 0.0 | 0.0 | 0.00 | 0.00 | 0.00 | 90 | 1011.4 |
| 20260505035616 | 51 | 76 | 0.0 | 0.0 | 0.00 | 0.00 | 0.00 | 90 | 1011.4 |
| 20260505035514 | 51 | 76 | 0.0 | 0.0 | 0.00 | 0.00 | 0.00 | 90 | 1011.3 |
| 20260505035418 | 51 | 76 | 0.0 | 0.0 | 0.00 | 0.00 | 0.00 | 89 | 1011.3 |
| 20260505035325 | 52 | 76 | 0.0 | 0.0 | 0.00 | 0.00 | 0.00 | 89 | 1011.3 |
| 20260505035210 | 52 | 76 | 0.0 | 0.0 | 0.00 | 0.00 | 0.00 | 89 | 1011.3 |
| 20260505035117 | 52 | 76 | 0.0 | 0.0 | 0.00 | 0.00 | 0.00 | 89 | 1011.3 |
| 20260505035030 | 52 | 76 | 0.0 | 0.0 | 0.00 | 0.00 | 0.00 | 89 | 1011.3 |
| 20260505034939 | 52 | 76 | 0.0 | 0.0 | 0.00 | 0.00 | 0.00 | 89 | 1011.3 |
| 20260505034831 | 52 | 76 | 0.0 | 0.0 | 0.00 | 0.00 | 0.00 | 89 | 1011.3 |
| 20260505034738 | 52 | 76 | 0.0 | 0.0 | 0.00 | 0.00 | 0.00 | 89 | 1011.3 |
| 20260505034650 | 52 | 76 | 0.0 | 0.0 | 0.00 | 0.00 | 0.00 | 89 | 1011.4 |
| 20260505034515 | 52 | 76 | 0.0 | 0.0 | 0.00 | 0.00 | 0.00 | 89 | 1011.4 |
| 20260505034510 | 51 | 76 | 0.0 | 0.0 | 0.00 | 0.00 | 0.00 | 89 | 1011.1 |
| 20260505034441 | 52 | 76 | 0.0 | 0.0 | 0.00 | 0.00 | 0.00 | 89 | 1011.4 |
| 20260505034326 | 52 | 76 | 0.0 | 0.0 | 0.00 | 0.00 | 0.00 | 89 | 1011.4 |
| 20260505034215 | 52 | 76 | 0.0 | 0.0 | 0.00 | 0.00 | 0.00 | 89 | 1011.4 |
| 20260505034128 | 52 | 76 | 0.0 | 0.0 | 0.00 | 0.00 | 0.00 | 89 | 1011.4 |
| 20260505034014 | 52 | 76 | 0.0 | 0.0 | 0.00 | 0.00 | 0.00 | 89 | 1011.3 |
| 20260505033920 | 52 | 76 | 0.0 | 0.0 | 0.00 | 0.00 | 0.00 | 89 | 1011.3 |
| 20260505033826 | 52 | 76 | 0.0 | 0.0 | 0.00 | 0.00 | 0.00 | 89 | 1011.3 |
| 20260505033740 | 52 | 76 | 0.0 | 0.0 | 0.00 | 0.00 | 0.00 | 89 | 1011.3 |
| 20260505033628 | 52 | 76 | 0.0 | 0.0 | 0.00 | 0.00 | 0.00 | 89 | 1011.3 |
| 20260505033534 | 52 | 76 | 0.0 | 0.0 | 0.00 | 0.00 | 0.00 | 89 | 1011.4 |
| 20260505033419 | 52 | 76 | 0.0 | 0.0 | 0.00 | 0.00 | 0.00 | 89 | 1011.3 |
| 20260505033332 | 52 | 76 | 0.0 | 0.0 | 0.00 | 0.00 | 0.00 | 89 | 1011.3 |
| 20260505033239 | 53 | 76 | 0.0 | 0.0 | 0.00 | 0.00 | 0.00 | 89 | 1011.4 |
| 20260505033124 | 53 | 76 | 0.0 | 0.0 | 0.00 | 0.00 | 0.00 | 89 | 1011.4 |
| 20260505033030 | 52 | 76 | 0.0 | 0.0 | 0.00 | 0.00 | 0.00 | 89 | 1011.1 |
| 20260505033014 | 53 | 76 | 0.0 | 0.0 | 0.00 | 0.00 | 0.00 | 89 | 1011.4 |
| 20260505032927 | 53 | 76 | 0.0 | 0.0 | 0.00 | 0.00 | 0.00 | 89 | 1011.4 |
| 20260505032833 | 53 | 76 | 0.0 | 0.0 | 0.00 | 0.00 | 0.00 | 88 | 1011.4 |
| 20260505032718 | 53 | 76 | 0.0 | 0.0 | 0.00 | 0.00 | 0.00 | 88 | 1011.4 |
| 20260505032631 | 53 | 76 | 0.0 | 0.0 | 0.00 | 0.00 | 0.00 | 88 | 1011.4 |
| 20260505032510 | 53 | 76 | 0.0 | 0.0 | 0.00 | 0.00 | 0.00 | 88 | 1011.4 |
| 20260505032427 | 53 | 76 | 0.0 | 0.0 | 0.00 | 0.00 | 0.00 | 88 | 1011.4 |
| 20260505032313 | 53 | 76 | 0.0 | 0.0 | 0.00 | 0.00 | 0.00 | 88 | 1011.4 |
| 20260505032220 | 53 | 76 | 0.0 | 0.0 | 0.00 | 0.00 | 0.00 | 88 | 1011.4 |
| 20260505032125 | 53 | 76 | 0.0 | 0.0 | 0.00 | 0.00 | 0.00 | 89 | 1011.4 |
| 20260505032011 | 53 | 76 | 0.0 | 0.0 | 0.00 | 0.00 | 0.00 | 88 | 1011.4 |
| 20260505031928 | 53 | 76 | 0.0 | 0.0 | 0.00 | 0.00 | 0.00 | 89 | 1011.4 |
| 20260505031811 | 53 | 76 | 0.0 | 0.0 | 0.00 | 0.00 | 0.00 | 89 | 1011.4 |
| 20260505031717 | 53 | 76 | 0.0 | 0.0 | 0.00 | 0.00 | 0.00 | 89 | 1011.4 |
| 20260505031623 | 53 | 76 | 0.0 | 0.0 | 0.00 | 0.00 | 0.00 | 89 | 1011.4 |
| 20260505031556 | 53 | 76 | 0.0 | 0.0 | 0.00 | 0.00 | 0.00 | 89 | 1011.2 |
| 20260505031528 | 53 | 76 | 0.0 | 0.0 | 0.00 | 0.00 | 0.00 | 89 | 1011.4 |
| 20260505031442 | 53 | 76 | 0.0 | 0.0 | 0.00 | 0.00 | 0.00 | 88 | 1011.5 |
| 20260505031311 | 54 | 76 | 0.0 | 0.0 | 0.00 | 0.00 | 0.00 | 88 | 1011.5 |
| 20260505031217 | 54 | 76 | 0.0 | 0.0 | 0.00 | 0.00 | 0.00 | 88 | 1011.4 |
| 20260505031122 | 54 | 76 | 0.0 | 0.0 | 0.00 | 0.00 | 0.00 | 88 | 1011.4 |
| 20260505031035 | 54 | 76 | 0.0 | 0.0 | 0.00 | 0.00 | 0.00 | 88 | 1011.5 |
| 20260505030941 | 54 | 76 | 0.0 | 0.0 | 0.00 | 0.00 | 0.00 | 88 | 1011.5 |
| 20260505030832 | 54 | 76 | 0.0 | 0.0 | 0.00 | 0.00 | 0.00 | 88 | 1011.5 |
| 20260505030722 | 54 | 76 | 0.0 | 0.0 | 0.00 | 0.00 | 0.00 | 89 | 1011.5 |
| 20260505030629 | 54 | 76 | 0.0 | 0.0 | 0.00 | 0.00 | 0.00 | 89 | 1011.5 |
| 20260505030514 | 54 | 76 | 0.0 | 0.0 | 0.00 | 0.00 | 0.00 | 89 | 1011.5 |
| 20260505030420 | 54 | 76 | 0.0 | 0.0 | 0.00 | 0.00 | 0.00 | 88 | 1011.5 |
| 20260505030325 | 54 | 76 | 0.0 | 0.0 | 0.00 | 0.00 | 0.00 | 88 | 1011.5 |
| 20260505030211 | 54 | 76 | 0.0 | 0.0 | 0.00 | 0.00 | 0.00 | 88 | 1011.6 |
| 20260505030128 | 54 | 76 | 0.0 | 0.0 | 0.00 | 0.00 | 0.00 | 88 | 1011.6 |
| 20260505030014 | 54 | 76 | 0.0 | 0.0 | 0.00 | 0.00 | 0.00 | 88 | 1011.6 |
| 20260505030006 | 54 | 76 | 0.0 | 0.0 | 0.00 | 0.00 | 0.00 | 88 | 1011.3 |
| 20260505025920 | 54 | 76 | 0.0 | 0.0 | 0.00 | 0.00 | 0.00 | 88 | 1011.6 |
| 20260505025827 | 54 | 76 | 0.0 | 0.0 | 0.00 | 0.00 | 0.00 | 88 | 1011.6 |
| 20260505025733 | 54 | 76 | 0.0 | 0.0 | 0.00 | 0.00 | 0.00 | 88 | 1011.6 |
| 20260505025645 | 54 | 76 | 0.0 | 0.0 | 0.00 | 0.00 | 0.00 | 88 | 1011.6 |
| 20260505025514 | 54 | 76 | 0.0 | 0.0 | 0.00 | 0.00 | 0.00 | 88 | 1011.6 |
| 20260505025421 | 54 | 76 | 0.0 | 0.0 | 0.00 | 0.00 | 0.00 | 88 | 1011.6 |
| 20260505025334 | 54 | 76 | 0.0 | 0.0 | 0.00 | 0.00 | 0.00 | 88 | 1011.6 |
| 20260505025220 | 54 | 76 | 0.0 | 0.0 | 0.00 | 0.00 | 0.00 | 88 | 1011.6 |
| 20260505025127 | 54 | 76 | 0.0 | 0.0 | 0.00 | 0.00 | 0.00 | 88 | 1011.6 |
| 20260505025017 | 54 | 76 | 0.0 | 0.0 | 0.00 | 0.00 | 0.00 | 88 | 1011.6 |
| 20260505024924 | 54 | 76 | 0.0 | 0.0 | 0.00 | 0.00 | 0.00 | 87 | 1011.6 |
| 20260505024810 | 54 | 76 | 0.0 | 0.0 | 0.00 | 0.00 | 0.00 | 87 | 1011.5 |
| 20260505024716 | 55 | 76 | 0.0 | 0.0 | 0.00 | 0.00 | 0.00 | 87 | 1011.6 |
| 20260505024649 | 55 | 76 | 0.0 | 0.0 | 0.00 | 0.00 | 0.00 | 87 | 1011.6 |
| 20260505024554 | 54 | 76 | 0.0 | 0.0 | 0.00 | 0.00 | 0.00 | 86 | 1011.3 |
| 20260505024513 | 55 | 76 | 0.0 | 0.0 | 0.00 | 0.00 | 0.00 | 86 | 1011.6 |
| 20260505024423 | 55 | 76 | 0.0 | 0.0 | 0.00 | 0.00 | 0.00 | 86 | 1011.6 |
| 20260505024309 | 55 | 76 | 0.0 | 0.0 | 0.00 | 0.00 | 0.00 | 86 | 1011.6 |
| 20260505024242 | 55 | 76 | 0.0 | 0.0 | 0.00 | 0.00 | 0.00 | 86 | 1011.6 |
| 20260505024127 | 55 | 76 | 0.0 | 0.0 | 0.00 | 0.00 | 0.00 | 86 | 1011.7 |
| 20260505024033 | 55 | 76 | 0.0 | 0.0 | 0.00 | 0.00 | 0.00 | 86 | 1011.6 |
| 20260505023925 | 55 | 76 | 0.0 | 0.0 | 0.00 | 0.00 | 0.00 | 86 | 1011.6 |
| 20260505023815 | 55 | 76 | 0.0 | 0.0 | 0.00 | 0.00 | 0.00 | 86 | 1011.7 |
| 20260505023741 | 55 | 76 | 0.0 | 0.0 | 0.00 | 0.00 | 0.00 | 87 | 1011.7 |
| 20260505023632 | 55 | 76 | 0.0 | 0.0 | 0.00 | 0.00 | 0.00 | 87 | 1011.7 |
| 20260505023518 | 55 | 76 | 0.0 | 0.0 | 0.00 | 0.00 | 0.00 | 87 | 1011.7 |
| 20260505023421 | 56 | 76 | 0.0 | 0.0 | 0.00 | 0.00 | 0.00 | 87 | 1011.7 |
| 20260505023354 | 56 | 76 | 0.0 | 0.0 | 0.00 | 0.00 | 0.00 | 87 | 1011.7 |
| 20260505023220 | 56 | 76 | 0.0 | 0.0 | 0.00 | 0.00 | 0.00 | 87 | 1011.7 |
| 20260505023121 | 55 | 76 | 0.0 | 0.0 | 0.00 | 0.00 | 0.00 | 87 | 1011.5 |
| 20260505023110 | 56 | 76 | 0.0 | 0.0 | 0.00 | 0.00 | 0.00 | 86 | 1011.7 |
| 20260505023016 | 56 | 76 | 0.0 | 0.0 | 0.00 | 0.00 | 0.00 | 87 | 1011.7 |
| 20260505022922 | 56 | 76 | 0.0 | 0.0 | 0.00 | 0.00 | 0.00 | 87 | 1011.7 |
| 20260505022855 | 56 | 76 | 0.0 | 0.0 | 0.00 | 0.00 | 0.00 | 87 | 1011.7 |
| 20260505022720 | 56 | 76 | 0.0 | 0.0 | 0.00 | 0.00 | 0.00 | 86 | 1011.7 |
| 20260505022610 | 56 | 76 | 0.0 | 0.0 | 0.00 | 0.00 | 0.00 | 86 | 1011.7 |
| 20260505022515 | 56 | 76 | 0.0 | 0.0 | 0.00 | 0.00 | 0.00 | 86 | 1011.8 |
| 20260505022421 | 56 | 76 | 0.0 | 0.0 | 0.00 | 0.00 | 0.00 | 86 | 1011.8 |
| 20260505022334 | 56 | 76 | 0.0 | 0.0 | 0.00 | 0.00 | 0.00 | 86 | 1011.7 |
| 20260505022221 | 56 | 76 | 0.0 | 0.0 | 0.00 | 0.00 | 0.00 | 86 | 1011.8 |
| 20260505022127 | 56 | 76 | 0.0 | 0.0 | 0.00 | 0.00 | 0.00 | 85 | 1011.8 |
| 20260505022017 | 56 | 76 | 0.0 | 0.0 | 0.00 | 0.00 | 0.00 | 85 | 1011.7 |
| 20260505021920 | 56 | 76 | 0.0 | 0.0 | 0.00 | 0.00 | 0.00 | 85 | 1011.7 |
| 20260505021826 | 56 | 76 | 0.0 | 0.0 | 0.00 | 0.00 | 0.00 | 85 | 1011.6 |
| 20260505021739 | 56 | 76 | 0.0 | 0.0 | 0.00 | 0.00 | 0.00 | 85 | 1011.6 |
| 20260505021618 | 56 | 76 | 0.0 | 0.0 | 0.00 | 0.00 | 0.00 | 84 | 1011.6 |
| 20260505021606 | 56 | 76 | 0.0 | 0.0 | 0.00 | 0.00 | 0.00 | 84 | 1011.3 |
| 20260505021524 | 56 | 76 | 0.0 | 0.0 | 0.00 | 0.00 | 0.00 | 84 | 1011.6 |
| 20260505021414 | 57 | 76 | 0.0 | 0.0 | 0.00 | 0.00 | 0.00 | 84 | 1011.6 |
| 20260505021344 | 57 | 76 | 0.0 | 0.0 | 0.00 | 0.00 | 0.00 | 84 | 1011.6 |
| 20260505021239 | 57 | 76 | 0.0 | 0.0 | 0.00 | 0.00 | 0.00 | 84 | 1011.6 |
| 20260505021138 | 57 | 76 | 0.0 | 0.0 | 0.00 | 0.00 | 0.00 | 84 | 1011.6 |
| 20260505021019 | 57 | 76 | 0.0 | 0.0 | 0.00 | 0.00 | 0.00 | 84 | 1011.6 |
| 20260505020931 | 57 | 76 | 0.0 | 0.0 | 0.00 | 0.00 | 0.00 | 83 | 1011.6 |
| 20260505020821 | 57 | 76 | 0.0 | 0.0 | 0.00 | 0.00 | 0.00 | 83 | 1011.6 |
| 20260505020727 | 57 | 76 | 0.0 | 0.0 | 0.00 | 0.00 | 0.00 | 84 | 1011.6 |
| 20260505020633 | 57 | 76 | 0.0 | 0.0 | 0.00 | 0.00 | 0.00 | 84 | 1011.6 |
| 20260505020534 | 57 | 76 | 0.0 | 0.0 | 0.00 | 0.00 | 0.00 | 83 | 1011.7 |
| 20260505020435 | 57 | 76 | 0.0 | 0.0 | 0.00 | 0.00 | 0.00 | 83 | 1011.7 |
| 20260505020325 | 57 | 76 | 0.0 | 0.0 | 0.00 | 0.00 | 0.00 | 83 | 1011.7 |
| 20260505020215 | 57 | 76 | 0.0 | 0.0 | 0.00 | 0.00 | 0.00 | 83 | 1011.6 |
| 20260505020121 | 57 | 76 | 0.0 | 0.0 | 0.00 | 0.00 | 0.00 | 83 | 1011.6 |
| 20260505020057 | 57 | 76 | 0.0 | 0.0 | 0.00 | 0.00 | 0.00 | 83 | 1011.3 |
| 20260505020021 | 57 | 76 | 0.0 | 0.0 | 0.00 | 0.00 | 0.00 | 83 | 1011.6 |
| 20260505015924 | 57 | 76 | 0.0 | 0.0 | 0.00 | 0.00 | 0.00 | 83 | 1011.6 |
| 20260505015826 | 58 | 76 | 0.0 | 0.0 | 0.00 | 0.00 | 0.00 | 83 | 1011.6 |
| 20260505015726 | 58 | 76 | 0.0 | 0.0 | 0.00 | 0.00 | 0.00 | 82 | 1011.6 |
| 20260505015609 | 58 | 76 | 0.0 | 0.0 | 0.00 | 0.00 | 0.00 | 82 | 1011.6 |
| 20260505015516 | 58 | 76 | 0.0 | 0.0 | 0.00 | 0.00 | 0.00 | 82 | 1011.6 |
| 20260505015429 | 58 | 76 | 0.0 | 0.0 | 0.00 | 0.00 | 0.00 | 82 | 1011.6 |
| 20260505015312 | 58 | 76 | 0.0 | 0.0 | 0.00 | 0.00 | 0.00 | 82 | 1011.6 |
| 20260505015229 | 58 | 76 | 0.0 | 0.0 | 0.00 | 0.00 | 0.00 | 81 | 1011.6 |
| 20260505015114 | 58 | 76 | 0.0 | 0.0 | 0.00 | 0.00 | 0.00 | 82 | 1011.6 |
| 20260505015021 | 58 | 76 | 0.0 | 0.0 | 0.00 | 0.00 | 0.00 | 82 | 1011.6 |
| 20260505014934 | 58 | 76 | 0.0 | 0.0 | 0.00 | 0.00 | 0.00 | 82 | 1011.7 |
| 20260505014821 | 58 | 76 | 0.0 | 0.0 | 0.00 | 0.00 | 0.00 | 81 | 1011.7 |
| 20260505014727 | 58 | 76 | 0.0 | 0.0 | 0.00 | 0.00 | 0.00 | 81 | 1011.7 |
| 20260505014613 | 59 | 76 | 0.0 | 0.0 | 0.00 | 0.00 | 0.00 | 80 | 1011.7 |
| 20260505014546 | 59 | 76 | 0.0 | 0.0 | 0.00 | 0.00 | 0.00 | 80 | 1011.7 |
| 20260505014525 | 58 | 76 | 0.0 | 0.0 | 0.00 | 0.00 | 0.00 | 80 | 1011.5 |
| 20260505014415 | 59 | 76 | 0.0 | 0.0 | 0.00 | 0.00 | 0.00 | 81 | 1011.7 |
| 20260505014341 | 59 | 76 | 0.0 | 0.0 | 0.00 | 0.00 | 0.00 | 80 | 1011.7 |
| 20260505014235 | 59 | 76 | 0.0 | 0.0 | 0.00 | 0.00 | 0.00 | 81 | 1011.7 |
| 20260505014112 | 59 | 76 | 0.0 | 0.0 | 0.00 | 0.00 | 0.00 | 80 | 1011.7 |
| 20260505014026 | 59 | 76 | 0.0 | 0.0 | 0.00 | 0.00 | 0.00 | 79 | 1011.7 |
| 20260505013925 | 59 | 76 | 0.0 | 0.0 | 0.00 | 0.00 | 0.00 | 79 | 1011.7 |
| 20260505013816 | 59 | 76 | 0.0 | 0.0 | 0.00 | 0.00 | 0.00 | 79 | 1011.7 |
| 20260505013712 | 60 | 76 | 0.0 | 0.0 | 0.00 | 0.00 | 0.00 | 80 | 1011.7 |
| 20260505013625 | 60 | 76 | 0.0 | 0.0 | 0.00 | 0.00 | 0.00 | 80 | 1011.7 |
| 20260505013528 | 60 | 76 | 0.0 | 0.0 | 0.00 | 0.00 | 0.00 | 80 | 1011.7 |
| 20260505013435 | 60 | 76 | 0.0 | 0.0 | 0.00 | 0.00 | 0.00 | 79 | 1011.7 |
| 20260505013342 | 60 | 76 | 0.0 | 0.0 | 0.00 | 0.00 | 0.00 | 79 | 1011.7 |
| 20260505013225 | 60 | 76 | 0.0 | 0.0 | 0.00 | 0.00 | 0.00 | 79 | 1011.7 |
| 20260505013140 | 60 | 76 | 0.0 | 0.0 | 0.00 | 0.00 | 0.00 | 79 | 1011.7 |
| 20260505013113 | 60 | 76 | 0.0 | 0.0 | 0.00 | 0.00 | 0.00 | 79 | 1011.4 |
| 20260505013041 | 60 | 76 | 0.0 | 0.0 | 0.00 | 0.00 | 0.00 | 79 | 1011.7 |
| 20260505012953 | 60 | 76 | 0.0 | 0.0 | 0.00 | 0.00 | 0.00 | 79 | 1011.6 |
| 20260505012816 | 60 | 76 | 0.0 | 0.0 | 0.00 | 0.00 | 0.00 | 78 | 1011.6 |
| 20260505012722 | 60 | 76 | 0.0 | 0.0 | 0.00 | 0.00 | 0.00 | 78 | 1011.6 |
| 20260505012654 | 60 | 76 | 0.0 | 0.0 | 0.00 | 0.00 | 0.00 | 77 | 1011.6 |
| 20260505012522 | 60 | 76 | 0.0 | 0.0 | 0.00 | 0.00 | 0.00 | 77 | 1011.6 |
| 20260505012412 | 61 | 76 | 0.0 | 0.0 | 0.00 | 0.00 | 0.00 | 77 | 1011.5 |
| 20260505012314 | 61 | 76 | 0.0 | 0.0 | 0.00 | 0.00 | 0.00 | 77 | 1011.4 |
| 20260505012227 | 61 | 76 | 0.0 | 0.0 | 0.00 | 0.00 | 0.00 | 77 | 1011.4 |
| 20260505012113 | 61 | 76 | 0.0 | 0.0 | 0.00 | 0.00 | 0.00 | 77 | 1011.4 |
| 20260505012018 | 61 | 76 | 0.0 | 0.0 | 0.00 | 0.00 | 0.00 | 77 | 1011.4 |
| 20260505011924 | 61 | 76 | 0.0 | 0.0 | 0.00 | 0.00 | 0.00 | 77 | 1011.4 |
| 20260505011811 | 61 | 76 | 0.0 | 0.0 | 0.00 | 0.00 | 0.00 | 77 | 1011.4 |
| 20260505011717 | 61 | 76 | 0.0 | 0.0 | 0.00 | 0.00 | 0.00 | 77 | 1011.4 |
| 20260505011630 | 61 | 76 | 0.0 | 0.0 | 0.00 | 0.00 | 0.00 | 76 | 1011.4 |
| 20260505011617 | 60 | 76 | 0.0 | 0.0 | 0.00 | 0.00 | 0.00 | 76 | 1011.1 |
| 20260505011529 | 61 | 76 | 0.0 | 0.0 | 0.00 | 0.00 | 0.00 | 76 | 1011.3 |
| 20260505011448 | 61 | 76 | 0.0 | 0.0 | 0.00 | 0.00 | 0.00 | 76 | 1011.3 |
| 20260505011319 | 61 | 76 | 0.0 | 0.0 | 0.00 | 0.00 | 0.00 | 76 | 1011.3 |
| 20260505011226 | 61 | 75 | 0.0 | 0.0 | 0.00 | 0.00 | 0.00 | 76 | 1011.3 |
| 20260505011112 | 61 | 71 | 0.0 | 0.0 | 0.00 | 0.00 | 0.00 | 76 | 1011.2 |
| 20260505011018 | 61 | 71 | 0.0 | 0.0 | 0.00 | 0.00 | 0.00 | 76 | 1011.2 |
| 20260505010928 | 61 | 71 | 0.0 | 0.0 | 0.00 | 0.00 | 0.00 | 76 | 1011.2 |
| 20260505010831 | 61 | 71 | 0.0 | 0.0 | 0.00 | 0.00 | 0.00 | 75 | 1011.2 |
| 20260505010804 | 62 | 71 | 0.0 | 0.0 | 0.00 | 0.00 | 0.00 | 75 | 1011.2 |
| 20260505010640 | 62 | 71 | 0.0 | 0.0 | 0.00 | 0.00 | 0.00 | 75 | 1011.2 |
| 20260505010528 | 62 | 71 | 0.0 | 0.0 | 0.00 | 0.00 | 0.00 | 75 | 1011.2 |
| 20260505010414 | 62 | 71 | 0.0 | 0.0 | 0.00 | 0.00 | 0.00 | 75 | 1011.1 |
| 20260505010327 | 62 | 71 | 0.0 | 0.0 | 0.00 | 0.00 | 0.00 | 75 | 1011.1 |
| 20260505010214 | 62 | 71 | 0.0 | 0.0 | 0.00 | 0.00 | 0.00 | 74 | 1011.1 |
| 20260505010119 | 62 | 71 | 0.0 | 0.0 | 0.00 | 0.00 | 0.00 | 73 | 1011.1 |
| 20260505010057 | 62 | 71 | 0.0 | 0.0 | 0.00 | 0.00 | 0.00 | 73 | 1010.9 |
| 20260505010025 | 62 | 71 | 0.0 | 0.0 | 0.00 | 0.00 | 0.00 | 74 | 1011.1 |
| 20260505005927 | 62 | 71 | 0.0 | 0.0 | 0.00 | 0.00 | 0.00 | 74 | 1011.1 |
| 20260505005840 | 63 | 71 | 0.0 | 0.0 | 0.00 | 0.00 | 0.00 | 73 | 1011.1 |
| 20260505005737 | 63 | 71 | 0.0 | 0.0 | 0.00 | 0.00 | 0.00 | 73 | 1011.1 |
| 20260505005647 | 63 | 71 | 0.0 | 0.0 | 0.00 | 0.00 | 0.00 | 73 | 1011.0 |
| 20260505005517 | 63 | 71 | 0.0 | 0.0 | 0.00 | 0.00 | 0.00 | 73 | 1011.0 |
| 20260505005423 | 63 | 71 | 0.0 | 0.0 | 0.00 | 0.00 | 0.00 | 73 | 1011.0 |
| 20260505005337 | 63 | 71 | 0.0 | 0.0 | 0.00 | 0.00 | 0.00 | 73 | 1011.0 |
| 20260505005216 | 63 | 71 | 0.0 | 0.0 | 0.00 | 0.00 | 0.00 | 72 | 1010.9 |
| 20260505005118 | 63 | 71 | 0.0 | 0.0 | 0.00 | 0.00 | 0.00 | 72 | 1010.9 |
| 20260505005014 | 63 | 71 | 0.0 | 0.0 | 0.00 | 0.00 | 0.00 | 73 | 1010.9 |
| 20260505004920 | 63 | 71 | 0.0 | 0.0 | 0.00 | 0.00 | 0.00 | 73 | 1010.9 |
| 20260505004832 | 63 | 71 | 0.0 | 0.0 | 0.00 | 0.00 | 0.00 | 72 | 1010.9 |
| 20260505004717 | 63 | 71 | 0.0 | 0.0 | 0.00 | 0.00 | 0.00 | 73 | 1010.9 |
| 20260505004623 | 63 | 71 | 0.0 | 0.0 | 0.00 | 0.00 | 0.00 | 72 | 1010.9 |
| 20260505004554 | 63 | 67 | 0.0 | 0.0 | 0.00 | 0.00 | 0.00 | 72 | 1010.7 |
| 20260505004530 | 63 | 56 | 0.0 | 0.0 | 0.00 | 0.00 | 0.00 | 72 | 1010.9 |
| 20260505004422 | 63 | 56 | 0.0 | 0.0 | 0.00 | 0.00 | 0.00 | 71 | 1010.9 |
| 20260505004321 | 63 | 56 | 0.0 | 0.0 | 0.00 | 0.00 | 0.00 | 71 | 1010.9 |
| 20260505004227 | 63 | 56 | 0.0 | 0.0 | 0.00 | 0.00 | 0.00 | 72 | 1010.9 |
| 20260505004114 | 63 | 56 | 0.0 | 0.0 | 0.00 | 0.00 | 0.00 | 71 | 1010.9 |
| 20260505004025 | 63 | 56 | 0.0 | 0.0 | 0.00 | 0.00 | 0.00 | 71 | 1010.9 |
| 20260505003930 | 63 | 56 | 0.0 | 0.0 | 0.00 | 0.00 | 0.00 | 71 | 1010.9 |
| 20260505003856 | 64 | 56 | 0.0 | 0.0 | 0.00 | 0.00 | 0.00 | 71 | 1010.8 |
| 20260505003734 | 64 | 56 | 0.0 | 0.0 | 0.00 | 0.00 | 0.00 | 71 | 1010.9 |
| 20260505003614 | 64 | 56 | 0.0 | 0.0 | 0.00 | 0.00 | 0.00 | 71 | 1010.9 |
| 20260505003514 | 64 | 56 | 0.0 | 0.0 | 0.00 | 0.00 | 0.00 | 72 | 1010.8 |
| 20260505003420 | 64 | 56 | 0.0 | 0.0 | 0.00 | 0.00 | 0.00 | 72 | 1010.9 |
| 20260505003331 | 64 | 56 | 0.0 | 0.0 | 0.00 | 0.00 | 0.00 | 71 | 1010.9 |
| 20260505003234 | 64 | 56 | 0.0 | 0.0 | 0.00 | 0.00 | 0.00 | 70 | 1010.9 |
| 20260505003146 | 64 | 56 | 0.0 | 0.0 | 0.00 | 0.00 | 0.00 | 70 | 1010.9 |
| 20260505003010 | 64 | 56 | 0.0 | 0.0 | 0.00 | 0.00 | 0.00 | 70 | 1010.9 |
| 20260505003001 | 64 | 56 | 0.0 | 0.0 | 0.00 | 0.00 | 0.00 | 70 | 1010.6 |
| 20260505002915 | 64 | 56 | 0.0 | 0.0 | 0.00 | 0.00 | 0.00 | 69 | 1010.8 |
| 20260505002825 | 64 | 56 | 0.0 | 0.0 | 0.00 | 0.00 | 0.00 | 69 | 1010.8 |
| 20260505002711 | 65 | 56 | 0.0 | 0.0 | 0.00 | 0.00 | 0.00 | 69 | 1010.8 |
| 20260505002617 | 65 | 56 | 0.0 | 0.0 | 0.00 | 0.00 | 0.00 | 68 | 1010.8 |
| 20260505002547 | 65 | 56 | 0.0 | 0.0 | 0.00 | 0.00 | 0.00 | 68 | 1010.8 |
| 20260505002427 | 65 | 56 | 0.0 | 0.0 | 0.00 | 0.00 | 0.00 | 68 | 1010.8 |
| 20260505002336 | 65 | 56 | 0.0 | 0.0 | 0.00 | 0.00 | 0.00 | 68 | 1010.8 |
| 20260505002222 | 65 | 56 | 0.0 | 0.0 | 0.00 | 0.00 | 0.00 | 68 | 1010.8 |
| 20260505002123 | 65 | 56 | 0.0 | 0.0 | 0.00 | 0.00 | 0.00 | 68 | 1010.8 |
| 20260505002010 | 65 | 56 | 0.0 | 0.0 | 0.00 | 0.00 | 0.00 | 67 | 1010.7 |
| 20260505001915 | 65 | 56 | 0.0 | 0.0 | 0.00 | 0.00 | 0.00 | 67 | 1010.6 |
| 20260505001819 | 66 | 56 | 0.0 | 0.0 | 0.00 | 0.00 | 0.00 | 67 | 1010.6 |
| 20260505001731 | 66 | 56 | 0.0 | 0.0 | 0.00 | 0.00 | 0.00 | 67 | 1010.6 |
| 20260505001641 | 66 | 56 | 0.0 | 0.0 | 0.00 | 0.00 | 0.00 | 67 | 1010.6 |
| 20260505001542 | 65 | 56 | 0.0 | 0.0 | 0.00 | 0.00 | 0.00 | 67 | 1010.4 |
| 20260505001526 | 66 | 56 | 0.0 | 0.0 | 0.00 | 0.00 | 0.00 | 67 | 1010.6 |
| 20260505001440 | 66 | 56 | 0.0 | 0.0 | 0.00 | 0.00 | 0.00 | 67 | 1010.6 |
| 20260505001324 | 66 | 56 | 0.0 | 0.0 | 0.00 | 0.00 | 0.00 | 67 | 1010.6 |
| 20260505001223 | 66 | 56 | 0.0 | 0.0 | 0.00 | 0.00 | 0.00 | 67 | 1010.6 |
| 20260505001136 | 66 | 56 | 0.0 | 0.0 | 0.00 | 0.00 | 0.00 | 65 | 1010.6 |
| 20260505001039 | 66 | 56 | 0.0 | 0.0 | 0.00 | 0.00 | 0.00 | 65 | 1010.6 |
| 20260505000924 | 67 | 56 | 0.0 | 0.0 | 0.00 | 0.00 | 0.00 | 65 | 1010.6 |
| 20260505000826 | 67 | 56 | 0.0 | 0.0 | 0.00 | 0.00 | 0.00 | 65 | 1010.6 |
| 20260505000739 | 67 | 56 | 0.0 | 0.0 | 0.00 | 0.00 | 0.00 | 65 | 1010.7 |
| 20260505000642 | 67 | 56 | 0.0 | 0.0 | 0.00 | 0.00 | 0.00 | 65 | 1010.7 |
| 20260505000522 | 67 | 56 | 0.0 | 0.0 | 0.00 | 0.00 | 0.00 | 64 | 1010.7 |
| 20260505000413 | 67 | 56 | 0.0 | 0.0 | 0.00 | 0.00 | 0.00 | 64 | 1010.7 |
| 20260505000324 | 67 | 56 | 0.0 | 0.0 | 0.00 | 0.00 | 0.00 | 64 | 1010.7 |
| 20260505000211 | 67 | 56 | 0.0 | 0.0 | 0.00 | 0.00 | 0.00 | 63 | 1010.5 |
| 20260505000116 | 68 | 56 | 0.0 | 0.0 | 0.00 | 0.00 | 0.00 | 64 | 1010.5 |
| 20260505000106 | 67 | 56 | 0.0 | 0.0 | 0.00 | 0.00 | 0.00 | 64 | 1010.3 |
| 20260505000022 | 68 | 56 | 0.0 | 0.0 | 0.00 | 0.00 | 0.00 | 62 | 1010.5 |
| 20260504235927 | 68 | 56 | 0.0 | 0.0 | 0.00 | 0.00 | 0.00 | 62 | 1010.6 |
| 20260504235817 | 68 | 56 | 0.0 | 0.0 | 0.00 | 0.00 | 0.00 | 62 | 1010.7 |
| 20260504235730 | 68 | 56 | 0.0 | 0.0 | 0.00 | 0.00 | 0.00 | 62 | 1010.7 |
| 20260504235616 | 68 | 56 | 0.0 | 0.0 | 0.00 | 0.00 | 0.00 | 62 | 1010.7 |
| 20260504235535 | 68 | 56 | 0.0 | 0.0 | 0.00 | 0.00 | 0.00 | 62 | 1010.6 |
| 20260504235427 | 68 | 56 | 0.0 | 1.0 | 0.00 | 0.00 | 0.00 | 61 | 1010.6 |
| 20260504235315 | 68 | 56 | 0.0 | 1.0 | 0.00 | 0.00 | 0.00 | 61 | 1010.6 |
| 20260504235223 | 68 | 56 | 0.0 | 1.0 | 0.00 | 0.00 | 0.00 | 61 | 1010.6 |
| 20260504235109 | 69 | 56 | 0.0 | 1.0 | 0.00 | 0.00 | 0.00 | 59 | 1010.6 |
| 20260504235015 | 69 | 56 | 0.0 | 1.0 | 0.00 | 0.00 | 0.00 | 59 | 1010.7 |
| 20260504234928 | 69 | 47 | 0.0 | 1.0 | 0.00 | 0.00 | 0.00 | 59 | 1010.7 |
| 20260504234814 | 69 | 34 | 0.0 | 1.0 | 0.00 | 0.00 | 0.00 | 60 | 1010.7 |
| 20260504234720 | 69 | 25 | 0.0 | 1.0 | 0.00 | 0.00 | 0.00 | 60 | 1010.7 |
| 20260504234610 | 69 | 355 | 0.0 | 1.0 | 0.00 | 0.00 | 0.00 | 59 | 1010.8 |
| 20260504234543 | 69 | 13 | 0.0 | 0.0 | 0.00 | 0.00 | 0.00 | 59 | 1010.8 |
| 20260504234507 | 69 | 13 | 0.0 | 0.0 | 0.00 | 0.00 | 0.00 | 58 | 1010.5 |
| 20260504234428 | 69 | 13 | 0.0 | 0.0 | 0.00 | 0.00 | 0.00 | 59 | 1010.7 |
| 20260504234314 | 69 | 65 | 0.0 | 0.0 | 0.00 | 0.00 | 0.00 | 58 | 1010.8 |
| 20260504234220 | 70 | 61 | 0.0 | 0.0 | 0.00 | 0.00 | 0.00 | 57 | 1010.8 |
| 20260504234123 | 70 | 74 | 0.0 | 0.0 | 0.00 | 0.00 | 0.00 | 58 | 1010.8 |
| 20260504234013 | 70 | 55 | 0.0 | 0.0 | 0.00 | 0.00 | 0.00 | 58 | 1010.7 |
| 20260504233923 | 70 | 292 | 0.0 | 0.0 | 0.00 | 0.00 | 0.00 | 58 | 1010.7 |
| 20260504233828 | 70 | 294 | 0.0 | 0.0 | 0.00 | 0.00 | 0.00 | 57 | 1010.7 |
| 20260504233714 | 70 | 347 | 0.0 | 0.0 | 0.00 | 0.00 | 0.00 | 56 | 1010.7 |
| 20260504233620 | 70 | 310 | 0.0 | 0.0 | 0.00 | 0.00 | 0.00 | 57 | 1010.7 |
| 20260504233537 | 70 | 267 | 0.0 | 0.0 | 0.00 | 0.00 | 0.00 | 57 | 1010.7 |
| 20260504233422 | 71 | 254 | 0.0 | 0.0 | 0.00 | 0.00 | 0.00 | 55 | 1010.7 |
| 20260504233327 | 71 | 53 | 0.0 | 1.0 | 0.00 | 0.00 | 0.00 | 55 | 1010.6 |
| 20260504233213 | 71 | 40 | 0.0 | 4.0 | 0.00 | 0.00 | 0.00 | 54 | 1010.5 |
| 20260504233117 | 71 | 69 | 0.0 | 12.0 | 0.00 | 0.00 | 0.00 | 54 | 1010.6 |
| 20260504233031 | 71 | 37 | 0.0 | 12.0 | 0.00 | 0.00 | 0.00 | 54 | 1010.6 |
| 20260504233013 | 71 | 36 | 0.0 | 12.0 | 0.00 | 0.00 | 0.00 | 54 | 1010.4 |
| 20260504232919 | 72 | 5 | 0.0 | 12.0 | 0.00 | 0.00 | 0.00 | 53 | 1010.5 |
| 20260504232825 | 72 | 49 | 0.0 | 12.0 | 0.00 | 0.00 | 0.00 | 53 | 1010.5 |
| 20260504232712 | 72 | 26 | 0.0 | 12.0 | 0.00 | 0.00 | 0.00 | 52 | 1010.4 |
| 20260504232618 | 72 | 305 | 0.0 | 12.0 | 0.00 | 0.00 | 0.00 | 52 | 1010.4 |
| 20260504232524 | 72 | 5 | 0.0 | 12.0 | 0.00 | 0.00 | 0.00 | 51 | 1010.4 |
| 20260504232413 | 72 | 321 | 3.0 | 12.0 | 0.00 | 0.00 | 0.00 | 51 | 1010.3 |
| 20260504232325 | 72 | 261 | 4.0 | 12.0 | 0.00 | 0.00 | 0.00 | 50 | 1010.3 |
| 20260504232212 | 73 | 355 | 1.0 | 5.0 | 0.00 | 0.00 | 0.00 | 49 | 1010.3 |
| 20260504232118 | 73 | 57 | 0.0 | 4.0 | 0.00 | 0.00 | 0.00 | 50 | 1010.2 |
| 20260504232024 | 73 | 24 | 0.0 | 1.0 | 0.00 | 0.00 | 0.00 | 49 | 1010.2 |
| 20260504231911 | 73 | 213 | 0.0 | 0.0 | 0.00 | 0.00 | 0.00 | 49 | 1010.2 |
| 20260504231848 | 73 | 207 | 0.0 | 0.0 | 0.00 | 0.00 | 0.00 | 49 | 1010.2 |
| 20260504231732 | 73 | 339 | 0.0 | 1.0 | 0.00 | 0.00 | 0.00 | 50 | 1010.2 |
| 20260504231624 | 73 | 314 | 0.0 | 1.0 | 0.00 | 0.00 | 0.00 | 48 | 1010.2 |
| 20260504231530 | 73 | 323 | 0.0 | 1.0 | 0.00 | 0.00 | 0.00 | 48 | 1010.2 |
| 20260504231506 | 72 | 304 | 0.0 | 1.0 | 0.00 | 0.00 | 0.00 | 48 | 1009.9 |
| 20260504231416 | 73 | 333 | 0.0 | 1.0 | 0.00 | 0.00 | 0.00 | 49 | 1010.1 |
| 20260504231322 | 72 | 28 | 0.0 | 1.0 | 0.00 | 0.00 | 0.00 | 49 | 1010.1 |
| 20260504231213 | 72 | 360 | 0.0 | 1.0 | 0.00 | 0.00 | 0.00 | 49 | 1010.1 |
| 20260504231118 | 72 | 49 | 0.0 | 1.0 | 0.00 | 0.00 | 0.00 | 50 | 1010.0 |
| 20260504231031 | 72 | 342 | 0.0 | 1.0 | 0.00 | 0.00 | 0.00 | 51 | 1010.0 |
| 20260504230916 | 72 | 355 | 0.0 | 1.0 | 0.00 | 0.00 | 0.00 | 55 | 1010.0 |
| 20260504230822 | 72 | 145 | 0.0 | 0.0 | 0.00 | 0.00 | 0.00 | 54 | 1010.0 |
| 20260504230728 | 72 | 145 | 0.0 | 0.0 | 0.00 | 0.00 | 0.00 | 55 | 1010.0 |
| 20260504230626 | 72 | 145 | 0.0 | 0.0 | 0.00 | 0.00 | 0.00 | 54 | 1010.0 |